Time,TemperatureF,DewpointF,PressureIn,WindDirection,WindDirectionDegrees,WindSpeedMPH,WindSpeedGustMPH,Humidity,HourlyPrecipIn,Conditions,Clouds,dailyrainin,SoftwareType,DateUTC
2013-01-24 00:03:00,27.8,18.3,30.05,WSW,250,0.0,0.0,67,0.00,,SCT,0.00,WeatherDisplay:10.37,2013-01-24 05:03:00,
2013-01-24 00:04:00,27.8,18.3,30.04,WSW,250,0.0,0.0,67,0.00,,SCT,0.00,WeatherDisplay:10.37,2013-01-24 05:04:00,
2013-01-24 00:08:00,27.8,18.3,30.04,WSW,250,0.0,0.0,67,0.00,,SCT,0.00,WeatherDisplay:10.37,2013-01-24 05:08:00,
2013-01-24 00:09:00,27.8,18.3,30.04,WSW,250,0.0,0.0,67,0.00,,SCT,0.00,WeatherDisplay:10.37,2013-01-24 05:09:00,
2013-01-24 00:13:00,27.9,18.7,30.04,WSW,250,0.0,0.0,68,0.00,,SCT,0.00,WeatherDisplay:10.37,2013-01-24 05:13:00,
2013-01-24 00:14:00,27.9,18.7,30.04,WSW,250,0.0,0.0,68,0.00,,SCT,0.00,WeatherDisplay:10.37,2013-01-24 05:14:00,
2013-01-24 00:18:00,28.2,19.3,30.03,WSW,250,0.0,0.0,69,0.00,,SCT,0.00,WeatherDisplay:10.37,2013-01-24 05:18:00,
2013-01-24 00:20:00,28.7,19.8,30.03,WSW,250,4.6,4.6,69,0.00,,SCT,0.00,WeatherDisplay:10.37,2013-01-24 05:20:00,
2013-01-24 00:22:00,29.1,20.2,30.03,WSW,254,6.0,6.0,69,0.00,,SCT,0.00,WeatherDisplay:10.37,2013-01-24 05:22:00,
2013-01-24 00:25:00,30.1,21.5,30.02,WSW,255,9.2,9.2,70,0.00,,SCT,0.00,WeatherDisplay:10.37,2013-01-24 05:25:00,
2013-01-24 00:26:00,30.6,22.0,30.02,WSW,255,6.9,6.9,70,0.00,,SCT,0.00,WeatherDisplay:10.37,2013-01-24 05:26:00,
2013-01-24 00:30:00,32.2,23.5,30.02,West,259,6.9,6.9,70,0.00,,SCT,0.00,WeatherDisplay:10.37,2013-01-24 05:30:00,
2013-01-24 00:31:00,32.5,23.8,30.02,WSW,253,7.0,7.0,70,0.00,,SCT,0.00,WeatherDisplay:10.37,2013-01-24 05:31:00,
2013-01-24 00:35:00,34.1,25.0,30.02,West,273,11.5,11.5,69,0.00,,SCT,0.00,WeatherDisplay:10.37,2013-01-24 05:35:00,
2013-01-24 00:38:00,34.9,25.8,30.02,West,261,5.8,5.8,69,0.00,,SCT,0.00,WeatherDisplay:10.37,2013-01-24 05:38:00,
2013-01-24 00:39:00,35.0,25.9,30.02,West,266,5.8,5.8,69,0.00,,SCT,0.00,WeatherDisplay:10.37,2013-01-24 05:39:00,
2013-01-24 00:41:00,35.3,25.8,30.02,WSW,253,4.6,4.6,68,0.00,,SCT,0.00,WeatherDisplay:10.37,2013-01-24 05:41:00,
2013-01-24 00:44:00,35.6,26.1,30.02,WSW,254,5.8,5.8,68,0.00,,SCT,0.00,WeatherDisplay:10.37,2013-01-24 05:44:00,
2013-01-24 00:45:00,35.8,26.3,30.02,WSW,252,7.0,7.0,68,0.00,,SCT,0.00,WeatherDisplay:10.37,2013-01-24 05:45:00,
2013-01-24 00:50:00,36.3,26.7,30.02,SW,236,11.0,11.0,68,0.00,,SCT,0.00,WeatherDisplay:10.37,2013-01-24 05:50:00,
2013-01-24 00:51:00,36.5,26.9,30.02,WSW,241,11.5,11.5,68,0.00,,SCT,0.00,WeatherDisplay:10.37,2013-01-24 05:51:00,
2013-01-24 00:52:00,36.6,26.7,30.02,WSW,246,11.5,11.5,67,0.00,,SCT,0.00,WeatherDisplay:10.37,2013-01-24 05:52:00,
2013-01-24 00:53:00,36.8,26.9,30.01,WSW,251,11.5,11.5,67,0.00,,SCT,0.00,WeatherDisplay:10.37,2013-01-24 05:53:00,
2013-01-24 00:55:00,37.0,27.1,30.01,WSW,252,9.2,9.2,67,0.00,,SCT,0.00,WeatherDisplay:10.37,2013-01-24 05:55:00,
2013-01-24 00:59:00,37.6,27.6,30.01,WSW,245,11.5,11.5,67,0.00,,SCT,0.00,WeatherDisplay:10.37,2013-01-24 05:59:00,
2013-01-24 01:00:00,37.8,27.5,30.01,WSW,241,11.5,11.5,66,0.00,,SCT,0.00,WeatherDisplay:10.37,2013-01-24 06:00:00,
2013-01-24 01:01:00,37.8,27.5,30.01,West,262,12.7,12.7,66,0.00,,SCT,0.00,WeatherDisplay:10.37,2013-01-24 06:01:00,
2013-01-24 01:05:00,38.2,27.8,30.01,West,259,5.8,5.8,66,0.00,,SCT,0.00,WeatherDisplay:10.37,2013-01-24 06:05:00,
2013-01-24 01:07:00,38.2,27.8,30.01,West,263,10.4,10.4,66,0.00,,SCT,0.00,WeatherDisplay:10.37,2013-01-24 06:07:00,
2013-01-24 01:10:00,38.3,27.9,30.00,West,264,6.9,6.9,66,0.00,,SCT,0.00,WeatherDisplay:10.37,2013-01-24 06:10:00,
2013-01-24 01:12:00,38.5,28.1,30.00,West,263,5.8,5.8,66,0.00,,SCT,0.00,WeatherDisplay:10.37,2013-01-24 06:12:00,
2013-01-24 01:15:00,38.5,28.1,30.00,West,264,4.6,4.6,66,0.00,,SCT,0.00,WeatherDisplay:10.37,2013-01-24 06:15:00,
2013-01-24 01:20:00,38.5,28.1,30.00,West,265,8.1,8.1,66,0.00,,SCT,0.00,WeatherDisplay:10.37,2013-01-24 06:20:00,
2013-01-24 01:21:00,38.5,28.1,30.00,WSW,250,8.1,8.1,66,0.00,,SCT,0.00,WeatherDisplay:10.37,2013-01-24 06:21:00,
2013-01-24 01:26:00,38.5,28.1,30.00,West,266,5.8,5.8,66,0.00,,SCT,0.00,WeatherDisplay:10.37,2013-01-24 06:26:00,
2013-01-24 01:27:00,38.6,28.2,30.00,WSW,248,8.1,8.1,66,0.00,,SCT,0.00,WeatherDisplay:10.37,2013-01-24 06:27:00,
2013-01-24 01:28:00,38.6,28.2,30.00,WSW,257,10.4,10.4,66,0.00,,SCT,0.00,WeatherDisplay:10.37,2013-01-24 06:28:00,
2013-01-24 01:30:00,38.8,28.4,30.00,West,271,11.5,11.5,66,0.00,,SCT,0.00,WeatherDisplay:10.37,2013-01-24 06:30:00,
2013-01-24 01:31:00,38.8,28.4,30.00,West,263,10.4,10.4,66,0.00,,SCT,0.00,WeatherDisplay:10.37,2013-01-24 06:31:00,
2013-01-24 01:33:00,38.9,28.5,30.00,WSW,257,9.2,9.2,66,0.00,,SCT,0.00,WeatherDisplay:10.37,2013-01-24 06:33:00,
2013-01-24 01:36:00,38.9,28.5,30.00,West,272,9.0,9.0,66,0.00,,SCT,0.00,WeatherDisplay:10.37,2013-01-24 06:36:00,
2013-01-24 01:39:00,39.1,28.7,30.00,WSW,250,6.9,6.9,66,0.00,,SCT,0.00,WeatherDisplay:10.37,2013-01-24 06:39:00,
2013-01-24 01:41:00,39.1,28.7,30.00,West,259,6.9,6.9,66,0.00,,SCT,0.00,WeatherDisplay:10.37,2013-01-24 06:41:00,
2013-01-24 01:45:00,39.2,28.8,30.00,WSW,252,8.1,8.1,66,0.00,,SCT,0.00,WeatherDisplay:10.37,2013-01-24 06:45:00,
2013-01-24 01:46:00,39.2,28.8,30.00,West,261,10.4,10.4,66,0.00,,SCT,0.00,WeatherDisplay:10.37,2013-01-24 06:46:00,
2013-01-24 01:47:00,39.3,28.9,30.00,West,263,8.1,8.1,66,0.00,,SCT,0.00,WeatherDisplay:10.37,2013-01-24 06:47:00,
2013-01-24 01:52:00,39.5,29.4,30.01,West,269,9.2,9.2,67,0.00,,SCT,0.00,WeatherDisplay:10.37,2013-01-24 06:52:00,
2013-01-24 01:56:00,39.6,29.5,30.01,WSW,257,8.1,8.1,67,0.00,,SCT,0.00,WeatherDisplay:10.37,2013-01-24 06:56:00,
2013-01-24 01:57:00,39.6,29.5,30.01,West,259,7.0,7.0,67,0.00,,SCT,0.00,WeatherDisplay:10.37,2013-01-24 06:57:00,
2013-01-24 02:02:00,39.9,29.8,30.01,WSW,254,9.2,9.2,67,0.00,,SCT,0.00,WeatherDisplay:10.37,2013-01-24 07:02:00,
2013-01-24 02:05:00,40.1,30.0,30.00,WSW,239,10.4,10.4,67,0.00,,SCT,0.00,WeatherDisplay:10.37,2013-01-24 07:05:00,
2013-01-24 02:08:00,40.2,30.1,30.00,WSW,252,10.4,10.4,67,0.00,,SCT,0.00,WeatherDisplay:10.37,2013-01-24 07:08:00,
2013-01-24 02:13:00,40.5,30.4,30.00,WSW,250,10.0,10.0,67,0.00,,SCT,0.00,WeatherDisplay:10.37,2013-01-24 07:13:00,
2013-01-24 02:18:00,40.8,31.1,30.00,WSW,246,12.7,12.7,68,0.00,,SCT,0.00,WeatherDisplay:10.37,2013-01-24 07:18:00,
2013-01-24 02:20:00,40.9,31.1,30.00,West,264,10.4,10.4,68,0.00,,SCT,0.00,WeatherDisplay:10.37,2013-01-24 07:20:00,
2013-01-24 02:23:00,41.2,31.4,30.00,WSW,254,9.2,9.2,68,0.00,,SCT,0.00,WeatherDisplay:10.37,2013-01-24 07:23:00,
2013-01-24 02:28:00,41.5,31.7,29.99,West,271,11.5,11.5,68,0.00,,SCT,0.00,WeatherDisplay:10.37,2013-01-24 07:28:00,
2013-01-24 02:33:00,41.8,32.0,30.00,SW,232,9.2,9.2,68,0.00,,SCT,0.00,WeatherDisplay:10.37,2013-01-24 07:33:00,
2013-01-24 02:34:00,41.8,32.0,30.00,West,269,12.7,12.7,68,0.00,,SCT,0.00,WeatherDisplay:10.37,2013-01-24 07:34:00,
2013-01-24 02:39:00,42.1,32.3,30.00,WNW,283,13.0,13.0,68,0.00,,SCT,0.00,WeatherDisplay:10.37,2013-01-24 07:39:00,
2013-01-24 02:44:00,42.3,32.1,30.00,WSW,250,16.1,16.1,67,0.00,,SCT,0.00,WeatherDisplay:10.37,2013-01-24 07:44:00,
2013-01-24 02:50:00,42.5,32.3,30.01,West,263,12.7,12.7,67,0.00,,SCT,0.00,WeatherDisplay:10.37,2013-01-24 07:50:00,
2013-01-24 02:55:00,42.6,32.4,30.01,WNW,282,15.0,15.0,67,0.00,,SCT,0.00,WeatherDisplay:10.37,2013-01-24 07:55:00,
2013-01-24 03:00:00,42.6,32.0,30.01,WSW,258,14.0,14.0,66,0.00,,SCT,0.00,WeatherDisplay:10.37,2013-01-24 08:00:00,
2013-01-24 03:05:00,42.8,32.2,30.00,West,273,19.6,19.6,66,0.00,,SCT,0.00,WeatherDisplay:10.37,2013-01-24 08:05:00,
2013-01-24 03:07:00,42.8,32.2,30.01,WSW,258,21.9,21.9,66,0.00,,SCT,0.00,WeatherDisplay:10.37,2013-01-24 08:07:00,
2013-01-24 03:10:00,42.8,32.2,30.01,West,259,21.9,21.9,66,0.00,,SCT,0.00,WeatherDisplay:10.37,2013-01-24 08:10:00,
2013-01-24 03:13:00,42.8,32.2,30.01,WSW,258,16.1,16.1,66,0.00,,SCT,0.00,WeatherDisplay:10.37,2013-01-24 08:13:00,
2013-01-24 03:15:00,42.8,31.8,30.01,West,269,19.6,19.6,65,0.00,,SCT,0.00,WeatherDisplay:10.37,2013-01-24 08:15:00,
2013-01-24 03:19:00,42.8,31.8,30.01,WNW,295,17.0,17.0,65,0.00,,SCT,0.00,WeatherDisplay:10.37,2013-01-24 08:19:00,
2013-01-24 03:20:00,42.8,31.8,30.01,West,275,15.0,15.0,65,0.00,,SCT,0.00,WeatherDisplay:10.37,2013-01-24 08:20:00,
2013-01-24 03:24:00,42.6,31.7,30.01,WSW,250,18.4,18.4,65,0.00,,SCT,0.00,WeatherDisplay:10.37,2013-01-24 08:24:00,
2013-01-24 03:25:00,42.6,31.7,30.01,West,271,18.4,18.4,65,0.00,,SCT,0.00,WeatherDisplay:10.37,2013-01-24 08:25:00,
2013-01-24 03:29:00,42.5,31.6,30.01,West,273,15.0,15.0,65,0.00,,SCT,0.00,WeatherDisplay:10.37,2013-01-24 08:29:00,
2013-01-24 03:31:00,42.5,31.6,30.01,West,261,21.9,21.9,65,0.00,,SCT,0.00,WeatherDisplay:10.37,2013-01-24 08:31:00,
2013-01-24 03:34:00,42.3,31.4,30.02,West,263,19.6,19.6,65,0.00,,SCT,0.00,WeatherDisplay:10.37,2013-01-24 08:34:00,
2013-01-24 03:39:00,42.2,31.3,30.02,WNW,293,17.3,17.3,65,0.00,,SCT,0.00,WeatherDisplay:10.37,2013-01-24 08:39:00,
2013-01-24 03:41:00,42.2,31.3,30.02,West,271,16.1,16.1,65,0.00,,SCT,0.00,WeatherDisplay:10.37,2013-01-24 08:41:00,
2013-01-24 03:44:00,42.1,31.2,30.02,West,263,20.0,20.0,65,0.00,,SCT,0.00,WeatherDisplay:10.37,2013-01-24 08:44:00,
2013-01-24 03:49:00,41.9,31.0,30.03,West,268,16.1,16.1,65,0.00,,SCT,0.00,WeatherDisplay:10.37,2013-01-24 08:49:00,
2013-01-24 03:50:00,41.8,30.9,30.03,West,261,16.1,16.1,65,0.00,,SCT,0.00,WeatherDisplay:10.37,2013-01-24 08:50:00,
2013-01-24 03:55:00,41.6,30.7,30.03,West,269,18.4,18.4,65,0.00,,SCT,0.00,WeatherDisplay:10.37,2013-01-24 08:55:00,
2013-01-24 03:57:00,41.5,30.6,30.03,West,270,11.5,11.5,65,0.00,,SCT,0.00,WeatherDisplay:10.37,2013-01-24 08:57:00,
2013-01-24 04:00:00,41.3,30.4,30.03,WSW,255,19.6,19.6,65,0.00,,SCT,0.00,WeatherDisplay:10.37,2013-01-24 09:00:00,
2013-01-24 04:01:00,41.3,30.4,30.03,West,270,19.6,19.6,65,0.00,,SCT,0.00,WeatherDisplay:10.37,2013-01-24 09:01:00,
2013-01-24 04:04:00,41.2,30.3,30.04,WSW,252,12.7,12.7,65,0.00,CLR,SCT,0.00,WeatherDisplay:10.37,2013-01-24 09:04:00,
2013-01-24 04:06:00,41.1,30.2,30.04,West,270,16.1,16.1,65,0.00,CLR,SCT,0.00,WeatherDisplay:10.37,2013-01-24 09:06:00,
2013-01-24 04:09:00,40.9,30.0,30.04,West,270,11.5,11.5,65,0.00,CLR,SCT,0.00,WeatherDisplay:10.37,2013-01-24 09:09:00,
2013-01-24 04:12:00,40.8,30.3,30.04,West,262,13.8,13.8,66,0.00,CLR,SCT,0.00,WeatherDisplay:10.37,2013-01-24 09:12:00,
2013-01-24 04:13:00,40.8,30.3,30.04,West,281,13.8,13.8,66,0.00,CLR,SCT,0.00,WeatherDisplay:10.37,2013-01-24 09:13:00,
2013-01-24 04:15:00,40.6,30.1,30.04,WNW,284,15.0,15.0,66,0.00,CLR,SCT,0.00,WeatherDisplay:10.37,2013-01-24 09:15:00,
2013-01-24 04:18:00,40.6,30.1,30.04,WNW,282,12.7,12.7,66,0.00,CLR,SCT,0.00,WeatherDisplay:10.37,2013-01-24 09:18:00,
2013-01-24 04:24:00,40.5,30.0,30.04,West,261,13.0,13.0,66,0.00,CLR,SCT,0.00,WeatherDisplay:10.37,2013-01-24 09:24:00,
2013-01-24 04:27:00,40.3,29.8,30.05,WNW,286,12.7,12.7,66,0.00,CLR,SCT,0.00,WeatherDisplay:10.37,2013-01-24 09:27:00,
2013-01-24 04:30:00,40.2,29.7,30.05,West,263,12.7,12.7,66,0.00,CLR,SCT,0.00,WeatherDisplay:10.37,2013-01-24 09:30:00,
2013-01-24 04:32:00,40.1,29.6,30.06,West,275,7.0,7.0,66,0.00,CLR,SCT,0.00,WeatherDisplay:10.37,2013-01-24 09:32:00,
2013-01-24 04:35:00,39.9,29.1,30.06,West,272,9.2,9.2,65,0.00,CLR,SCT,0.00,WeatherDisplay:10.37,2013-01-24 09:35:00,
2013-01-24 04:36:00,39.9,29.1,30.06,West,271,11.5,11.5,65,0.00,CLR,SCT,0.00,WeatherDisplay:10.37,2013-01-24 09:36:00,
2013-01-24 04:37:00,39.8,29.0,30.06,West,265,16.1,16.1,65,0.00,CLR,SCT,0.00,WeatherDisplay:10.37,2013-01-24 09:37:00,
2013-01-24 04:41:00,39.5,27.9,30.06,WSW,257,17.0,17.0,63,0.00,CLR,SCT,0.00,WeatherDisplay:10.37,2013-01-24 09:41:00,
2013-01-24 04:45:00,39.2,27.7,30.06,West,269,11.5,12.4,63,0.00,CLR,SCT,0.00,WeatherDisplay:10.37,2013-01-24 09:45:00,
2013-01-24 04:46:00,39.2,27.3,30.06,West,273,16.1,16.1,62,0.00,CLR,SCT,0.00,WeatherDisplay:10.37,2013-01-24 09:46:00,
2013-01-24 04:47:00,39.1,27.2,30.06,WNW,283,12.7,12.7,62,0.00,CLR,SCT,0.00,WeatherDisplay:10.37,2013-01-24 09:47:00,
2013-01-24 04:50:00,38.9,27.0,30.06,WNW,282,13.8,13.8,62,0.00,CLR,SCT,0.00,WeatherDisplay:10.37,2013-01-24 09:50:00,
2013-01-24 04:51:00,38.9,27.0,30.06,West,277,10.4,10.4,62,0.00,CLR,SCT,0.00,WeatherDisplay:10.37,2013-01-24 09:51:00,
2013-01-24 04:54:00,38.8,26.9,30.06,WSW,257,16.1,16.1,62,0.00,CLR,SCT,0.00,WeatherDisplay:10.37,2013-01-24 09:54:00,
2013-01-24 04:59:00,38.5,26.6,30.06,West,268,11.5,11.5,62,0.00,CLR,SCT,0.00,WeatherDisplay:10.37,2013-01-24 09:59:00,
2013-01-24 05:03:00,38.3,26.4,30.06,West,281,8.1,8.1,62,0.00,CLR,SCT,0.00,WeatherDisplay:10.37,2013-01-24 10:03:00,
2013-01-24 05:07:00,38.2,26.3,30.07,WNW,283,12.7,12.7,62,0.00,CLR,SCT,0.00,WeatherDisplay:10.37,2013-01-24 10:07:00,
2013-01-24 05:12:00,37.9,25.2,30.08,West,269,11.5,11.5,60,0.00,CLR,SCT,0.00,WeatherDisplay:10.37,2013-01-24 10:12:00,
2013-01-24 05:13:00,37.9,26.0,30.07,West,272,4.6,4.6,62,0.00,CLR,SCT,0.00,WeatherDisplay:10.37,2013-01-24 10:13:00,
2013-01-24 05:14:00,37.8,25.9,30.07,West,272,5.8,5.8,62,0.00,CLR,SCT,0.00,WeatherDisplay:10.37,2013-01-24 10:14:00,
2013-01-24 05:18:00,37.6,25.7,30.08,West,279,4.6,4.6,62,0.00,CLR,SCT,0.00,WeatherDisplay:10.37,2013-01-24 10:18:00,
2013-01-24 05:23:00,37.3,25.5,30.08,North,360,3.5,3.5,62,0.00,CLR,SCT,0.00,WeatherDisplay:10.37,2013-01-24 10:23:00,
2013-01-24 05:28:00,37.0,25.6,30.08,West,277,9.2,9.2,63,0.00,CLR,SCT,0.00,WeatherDisplay:10.37,2013-01-24 10:28:00,
2013-01-24 05:33:00,36.8,25.4,30.09,West,267,11.5,11.5,63,0.00,CLR,SCT,0.00,WeatherDisplay:10.37,2013-01-24 10:33:00,
2013-01-24 05:35:00,36.6,25.2,30.09,West,271,9.2,9.2,63,0.00,CLR,SCT,0.00,WeatherDisplay:10.37,2013-01-24 10:35:00,
2013-01-24 05:38:00,36.5,25.1,30.10,WNW,283,10.4,10.4,63,0.00,CLR,SCT,0.00,WeatherDisplay:10.37,2013-01-24 10:38:00,
2013-01-24 05:40:00,36.3,24.9,30.10,West,271,6.9,6.9,63,0.00,CLR,SCT,0.00,WeatherDisplay:10.37,2013-01-24 10:40:00,
2013-01-24 05:43:00,36.3,24.9,30.10,WNW,285,10.4,10.4,63,0.00,CLR,SCT,0.00,WeatherDisplay:10.37,2013-01-24 10:43:00,
2013-01-24 05:48:00,36.0,24.6,30.10,West,271,0.0,0.0,63,0.00,CLR,SCT,0.00,WeatherDisplay:10.37,2013-01-24 10:48:00,
2013-01-24 05:53:00,35.8,24.8,30.10,West,270,1.1,0.0,64,0.00,CLR,SCT,0.00,WeatherDisplay:10.37,2013-01-24 10:53:00,
2013-01-24 05:56:00,35.5,24.5,30.10,West,266,5.8,5.8,64,0.00,CLR,SCT,0.00,WeatherDisplay:10.37,2013-01-24 10:56:00,
2013-01-24 05:58:00,35.3,24.3,30.11,West,266,3.5,3.5,64,0.00,CLR,SCT,0.00,WeatherDisplay:10.37,2013-01-24 10:58:00,
2013-01-24 06:03:00,35.0,24.0,30.12,WNW,293,0.0,0.0,64,0.00,CLR,SCT,0.00,WeatherDisplay:10.37,2013-01-24 11:03:00,
2013-01-24 06:08:00,34.7,23.8,30.13,WNW,293,0.0,0.0,64,0.00,CLR,SCT,0.00,WeatherDisplay:10.37,2013-01-24 11:08:00,
2013-01-24 06:09:00,34.7,23.8,30.13,WNW,283,6.9,6.9,64,0.00,CLR,SCT,0.00,WeatherDisplay:10.37,2013-01-24 11:09:00,
2013-01-24 06:12:00,34.6,23.7,30.13,West,261,6.9,6.9,64,0.00,CLR,SCT,0.00,WeatherDisplay:10.37,2013-01-24 11:12:00,
2013-01-24 06:14:00,34.4,23.5,30.13,WSW,256,9.2,9.2,64,0.00,CLR,SCT,0.00,WeatherDisplay:10.37,2013-01-24 11:14:00,
2013-01-24 06:17:00,34.3,23.4,30.13,West,267,11.5,11.5,64,0.00,CLR,SCT,0.00,WeatherDisplay:10.37,2013-01-24 11:17:00,
2013-01-24 06:18:00,34.3,23.4,30.13,West,259,11.5,11.5,64,0.00,CLR,SCT,0.00,WeatherDisplay:10.37,2013-01-24 11:18:00,
2013-01-24 06:19:00,34.3,23.0,30.13,West,273,10.4,10.4,63,0.00,CLR,SCT,0.00,WeatherDisplay:10.37,2013-01-24 11:19:00,
2013-01-24 06:22:00,34.3,22.6,30.14,West,265,10.4,10.4,62,0.00,CLR,SCT,0.00,WeatherDisplay:10.37,2013-01-24 11:22:00,
2013-01-24 06:25:00,34.3,22.6,30.14,West,259,10.4,10.4,62,0.00,CLR,SCT,0.00,WeatherDisplay:10.37,2013-01-24 11:25:00,
2013-01-24 06:30:00,34.1,22.4,30.14,West,261,8.0,8.0,62,0.00,CLR,SCT,0.00,WeatherDisplay:10.37,2013-01-24 11:30:00,
2013-01-24 06:31:00,34.1,22.4,30.14,WSW,254,8.1,8.1,62,0.00,CLR,SCT,0.00,WeatherDisplay:10.37,2013-01-24 11:31:00,
2013-01-24 06:33:00,34.0,22.3,30.14,WSW,254,5.8,5.8,62,0.00,CLR,SCT,0.00,WeatherDisplay:10.37,2013-01-24 11:33:00,
2013-01-24 06:37:00,33.8,21.8,30.14,West,267,6.9,6.9,61,0.00,CLR,SCT,0.00,WeatherDisplay:10.37,2013-01-24 11:37:00,
2013-01-24 06:38:00,33.7,21.7,30.14,West,266,6.9,6.9,61,0.00,CLR,SCT,0.00,WeatherDisplay:10.37,2013-01-24 11:38:00,
2013-01-24 06:43:00,33.5,21.5,30.15,West,266,6.9,6.9,61,0.00,CLR,SCT,0.00,WeatherDisplay:10.37,2013-01-24 11:43:00,
2013-01-24 06:44:00,33.5,21.5,30.15,West,265,6.9,6.9,61,0.00,CLR,SCT,0.00,WeatherDisplay:10.37,2013-01-24 11:44:00,
2013-01-24 06:48:00,33.4,21.4,30.16,West,263,4.6,4.6,61,0.00,CLR,SCT,0.00,WeatherDisplay:10.37,2013-01-24 11:48:00,
2013-01-24 06:51:00,33.2,21.2,30.16,West,263,1.1,1.1,61,0.00,CLR,SCT,0.00,WeatherDisplay:10.37,2013-01-24 11:51:00,
2013-01-24 06:55:00,33.1,21.1,30.16,West,263,0.0,0.0,61,0.00,CLR,SCT,0.00,WeatherDisplay:10.37,2013-01-24 11:55:00,
2013-01-24 06:56:00,32.9,20.9,30.16,West,263,0.0,0.0,61,0.00,CLR,SCT,0.00,WeatherDisplay:10.37,2013-01-24 11:56:00,
2013-01-24 06:58:00,32.8,20.8,30.16,West,263,0.0,0.0,61,0.00,CLR,SCT,0.00,WeatherDisplay:10.37,2013-01-24 11:58:00,
2013-01-24 06:59:00,32.8,20.8,30.16,West,263,0.0,0.0,61,0.00,CLR,SCT,0.00,WeatherDisplay:10.37,2013-01-24 11:59:00,
2013-01-24 07:00:00,32.8,20.8,30.16,West,263,0.0,0.0,61,0.00,CLR,SCT,0.00,WeatherDisplay:10.37,2013-01-24 12:00:00,
2013-01-24 07:03:00,32.7,20.7,30.17,West,263,0.0,0.0,61,0.00,CLR,SCT,0.00,WeatherDisplay:10.37,2013-01-24 12:03:00,
2013-01-24 07:05:00,32.5,20.9,30.18,West,263,0.0,0.0,62,0.00,CLR,SCT,0.00,WeatherDisplay:10.37,2013-01-24 12:05:00,
2013-01-24 07:08:00,32.4,20.8,30.18,West,263,0.0,0.0,62,0.00,CLR,SCT,0.00,WeatherDisplay:10.37,2013-01-24 12:08:00,
2013-01-24 07:10:00,32.4,20.8,30.18,West,263,0.0,0.0,62,0.00,CLR,SCT,0.00,WeatherDisplay:10.37,2013-01-24 12:10:00,
2013-01-24 07:14:00,32.2,20.6,30.18,West,263,0.0,0.0,62,0.00,CLR,SCT,0.00,WeatherDisplay:10.37,2013-01-24 12:14:00,
2013-01-24 07:19:00,32.1,20.2,30.18,West,269,9.2,9.2,61,0.00,CLR,SCT,0.00,WeatherDisplay:10.37,2013-01-24 12:19:00,
2013-01-24 07:23:00,32.1,20.2,30.19,West,270,3.5,3.5,61,0.00,CLR,SCT,0.00,WeatherDisplay:10.37,2013-01-24 12:23:00,
2013-01-24 07:24:00,31.9,20.3,30.19,West,271,3.5,3.5,62,0.00,CLR,SCT,0.00,WeatherDisplay:10.37,2013-01-24 12:24:00,
2013-01-24 07:29:00,31.8,20.3,30.19,West,270,4.6,4.6,62,0.00,CLR,SCT,0.00,WeatherDisplay:10.37,2013-01-24 12:29:00,
2013-01-24 07:32:00,31.8,20.3,30.20,West,270,0.0,0.0,62,0.00,CLR,SCT,0.00,WeatherDisplay:10.37,2013-01-24 12:32:00,
2013-01-24 07:34:00,31.6,20.1,30.20,West,270,0.0,0.0,62,0.00,CLR,SCT,0.00,WeatherDisplay:10.37,2013-01-24 12:34:00,
2013-01-24 07:39:00,31.3,19.8,30.20,WNW,290,5.8,5.8,62,0.00,CLR,SCT,0.00,WeatherDisplay:10.37,2013-01-24 12:39:00,
2013-01-24 07:40:00,31.3,19.8,30.20,WNW,290,5.8,5.8,62,0.00,CLR,SCT,0.00,WeatherDisplay:10.37,2013-01-24 12:40:00,
2013-01-24 07:45:00,31.0,19.5,30.21,WNW,292,3.5,3.5,62,0.00,CLR,SCT,0.00,WeatherDisplay:10.37,2013-01-24 12:45:00,
2013-01-24 07:46:00,31.0,19.5,30.21,WNW,294,5.8,5.8,62,0.00,CLR,SCT,0.00,WeatherDisplay:10.37,2013-01-24 12:46:00,
2013-01-24 07:50:00,30.9,19.0,30.22,WNW,294,5.0,5.0,61,0.00,CLR,SCT,0.00,WeatherDisplay:10.37,2013-01-24 12:50:00,
2013-01-24 07:52:00,30.9,19.0,30.22,WNW,294,3.5,3.5,61,0.00,CLR,SCT,0.00,WeatherDisplay:10.37,2013-01-24 12:52:00,
2013-01-24 07:57:00,30.7,18.8,30.23,WNW,294,0.0,0.0,61,0.00,CLR,SCT,0.00,WeatherDisplay:10.37,2013-01-24 12:57:00,
2013-01-24 08:01:00,30.6,18.7,30.22,WNW,284,6.9,6.9,61,0.00,CLR,SCT,0.00,WeatherDisplay:10.37,2013-01-24 13:01:00,
2013-01-24 08:02:00,30.6,18.7,30.22,WNW,284,4.6,4.6,61,0.00,CLR,SCT,0.00,WeatherDisplay:10.37,2013-01-24 13:02:00,
2013-01-24 08:07:00,30.6,18.7,30.22,WNW,284,3.5,3.5,61,0.00,CLR,SCT,0.00,WeatherDisplay:10.37,2013-01-24 13:07:00,
2013-01-24 08:09:00,30.6,18.7,30.23,West,271,4.6,4.6,61,0.00,CLR,SCT,0.00,WeatherDisplay:10.37,2013-01-24 13:09:00,
2013-01-24 08:12:00,30.6,18.7,30.23,West,271,4.0,4.0,61,0.00,CLR,SCT,0.00,WeatherDisplay:10.37,2013-01-24 13:12:00,
2013-01-24 08:17:00,30.6,18.7,30.23,West,269,5.0,5.0,61,0.00,CLR,SCT,0.00,WeatherDisplay:10.37,2013-01-24 13:17:00,
2013-01-24 08:18:00,30.6,18.7,30.23,West,269,4.6,4.6,61,0.00,CLR,SCT,0.00,WeatherDisplay:10.37,2013-01-24 13:18:00,
2013-01-24 08:19:00,30.6,18.7,30.23,West,269,4.6,4.6,61,0.00,CLR,SCT,0.00,WeatherDisplay:10.37,2013-01-24 13:19:00,
2013-01-24 08:22:00,30.7,18.8,30.24,West,264,8.1,8.1,61,0.00,CLR,SCT,0.00,WeatherDisplay:10.37,2013-01-24 13:22:00,
2013-01-24 08:24:00,30.7,18.8,30.24,West,265,3.5,3.5,61,0.00,CLR,SCT,0.00,WeatherDisplay:10.37,2013-01-24 13:24:00,
2013-01-24 08:27:00,30.9,19.0,30.24,West,266,4.6,4.6,61,0.00,CLR,SCT,0.00,WeatherDisplay:10.37,2013-01-24 13:27:00,
2013-01-24 08:30:00,31.0,19.1,30.24,West,267,5.0,5.0,61,0.00,CLR,SCT,0.00,WeatherDisplay:10.37,2013-01-24 13:30:00,
2013-01-24 08:33:00,31.0,18.7,30.24,West,271,5.8,5.8,60,0.00,CLR,SCT,0.00,WeatherDisplay:10.37,2013-01-24 13:33:00,
2013-01-24 08:34:00,31.2,19.3,30.25,West,271,4.6,4.6,61,0.00,CLR,SCT,0.00,WeatherDisplay:10.37,2013-01-24 13:34:00,
2013-01-24 08:35:00,31.2,18.9,30.25,West,272,5.0,5.0,60,0.00,CLR,SCT,0.00,WeatherDisplay:10.37,2013-01-24 13:35:00,
2013-01-24 08:38:00,31.3,19.4,30.25,West,273,1.1,0.0,61,0.00,CLR,SCT,0.00,WeatherDisplay:10.37,2013-01-24 13:38:00,
2013-01-24 08:40:00,31.3,19.4,30.25,West,274,4.6,4.6,61,0.00,CLR,SCT,0.00,WeatherDisplay:10.37,2013-01-24 13:40:00,
2013-01-24 08:41:00,31.5,19.6,30.25,West,271,6.9,6.9,61,0.00,CLR,SCT,0.00,WeatherDisplay:10.37,2013-01-24 13:41:00,
2013-01-24 08:43:00,31.5,19.6,30.25,West,270,7.0,7.0,61,0.00,CLR,SCT,0.00,WeatherDisplay:10.37,2013-01-24 13:43:00,
2013-01-24 08:45:00,31.6,19.3,30.25,West,271,6.9,6.9,60,0.00,CLR,SCT,0.00,WeatherDisplay:10.37,2013-01-24 13:45:00,
2013-01-24 08:47:00,31.6,19.3,30.25,West,274,6.9,6.9,60,0.00,CLR,SCT,0.00,WeatherDisplay:10.37,2013-01-24 13:47:00,
2013-01-24 08:49:00,31.8,19.5,30.25,West,274,3.5,3.5,60,0.00,CLR,SCT,0.00,WeatherDisplay:10.37,2013-01-24 13:49:00,
2013-01-24 08:52:00,31.8,19.5,30.25,West,276,5.0,5.0,60,0.00,CLR,SCT,0.00,WeatherDisplay:10.37,2013-01-24 13:52:00,
2013-01-24 08:54:00,31.9,19.6,30.25,West,276,3.5,3.5,60,0.00,CLR,SCT,0.00,WeatherDisplay:10.37,2013-01-24 13:54:00,
2013-01-24 08:59:00,32.1,19.8,30.26,WNW,291,6.9,6.9,60,0.00,CLR,SCT,0.00,WeatherDisplay:10.37,2013-01-24 13:59:00,
2013-01-24 09:00:00,32.1,19.8,30.26,NW,313,6.9,6.9,60,0.00,CLR,SCT,0.00,WeatherDisplay:10.37,2013-01-24 14:00:00,
2013-01-24 09:03:00,32.2,19.9,30.27,NW,314,3.5,3.5,60,0.00,CLR,SCT,0.00,WeatherDisplay:10.37,2013-01-24 14:03:00,
2013-01-24 09:05:00,32.2,19.9,30.27,WNW,284,7.0,7.0,60,0.00,CLR,SCT,0.00,WeatherDisplay:10.37,2013-01-24 14:05:00,
2013-01-24 09:06:00,32.4,20.0,30.27,West,277,7.0,7.0,60,0.00,CLR,SCT,0.00,WeatherDisplay:10.37,2013-01-24 14:06:00,
2013-01-24 09:08:00,32.4,20.0,30.26,West,263,8.1,8.1,60,0.00,CLR,SCT,0.00,WeatherDisplay:10.37,2013-01-24 14:08:00,
2013-01-24 09:11:00,32.4,19.7,30.26,West,271,11.5,11.5,59,0.00,CLR,SCT,0.00,WeatherDisplay:10.37,2013-01-24 14:11:00,
2013-01-24 09:13:00,32.4,19.7,30.27,West,268,10.0,10.0,59,0.00,CLR,SCT,0.00,WeatherDisplay:10.37,2013-01-24 14:13:00,
2013-01-24 09:15:00,32.4,19.7,30.27,WSW,257,14.0,14.0,59,0.00,CLR,SCT,0.00,WeatherDisplay:10.37,2013-01-24 14:15:00,
2013-01-24 09:16:00,32.4,19.7,30.27,West,274,12.7,12.7,59,0.00,CLR,SCT,0.00,WeatherDisplay:10.37,2013-01-24 14:16:00,
2013-01-24 09:19:00,32.5,19.7,30.27,West,279,5.0,5.0,59,0.00,CLR,SCT,0.00,WeatherDisplay:10.37,2013-01-24 14:19:00,
2013-01-24 09:21:00,32.5,19.7,30.27,West,266,11.5,11.5,59,0.00,CLR,SCT,0.00,WeatherDisplay:10.37,2013-01-24 14:21:00,
2013-01-24 09:24:00,32.5,19.7,30.27,NW,313,6.9,6.9,59,0.00,CLR,SCT,0.00,WeatherDisplay:10.37,2013-01-24 14:24:00,
2013-01-24 09:26:00,32.7,19.9,30.27,NW,313,4.6,4.6,59,0.00,CLR,SCT,0.00,WeatherDisplay:10.37,2013-01-24 14:26:00,
2013-01-24 09:29:00,32.9,20.1,30.28,NNW,338,4.6,4.6,59,0.00,CLR,SCT,0.00,WeatherDisplay:10.37,2013-01-24 14:29:00,
2013-01-24 09:31:00,33.1,20.3,30.28,NNW,343,6.0,6.0,59,0.00,CLR,SCT,0.00,WeatherDisplay:10.37,2013-01-24 14:31:00,
2013-01-24 09:32:00,33.1,20.3,30.28,North,351,8.1,8.1,59,0.00,CLR,SCT,0.00,WeatherDisplay:10.37,2013-01-24 14:32:00,
2013-01-24 09:33:00,33.1,20.3,30.28,North,355,5.8,5.8,59,0.00,CLR,SCT,0.00,WeatherDisplay:10.37,2013-01-24 14:33:00,
2013-01-24 09:38:00,32.9,19.7,30.28,North,355,8.1,8.1,58,0.00,CLR,SCT,0.00,WeatherDisplay:10.37,2013-01-24 14:38:00,
2013-01-24 09:39:00,32.8,19.6,30.28,NNW,340,3.5,3.5,58,0.00,CLR,SCT,0.00,WeatherDisplay:10.37,2013-01-24 14:39:00,
2013-01-24 09:40:00,32.8,19.6,30.28,NNW,340,4.0,4.3,58,0.00,CLR,SCT,0.00,WeatherDisplay:10.37,2013-01-24 14:40:00,
2013-01-24 09:44:00,32.5,19.3,30.28,North,355,5.8,5.8,58,0.00,CLR,SCT,0.00,WeatherDisplay:10.37,2013-01-24 14:44:00,
2013-01-24 09:46:00,32.4,19.3,30.28,North,355,0.0,0.0,58,0.00,CLR,SCT,0.00,WeatherDisplay:10.37,2013-01-24 14:46:00,
2013-01-24 09:49:00,32.2,19.1,30.29,NNW,347,10.4,10.4,58,0.00,CLR,SCT,0.00,WeatherDisplay:10.37,2013-01-24 14:49:00,
2013-01-24 09:50:00,32.2,19.1,30.29,North,350,10.4,10.4,58,0.00,CLR,SCT,0.00,WeatherDisplay:10.37,2013-01-24 14:50:00,
2013-01-24 09:51:00,32.2,19.1,30.29,NNW,333,8.0,8.0,58,0.00,CLR,SCT,0.00,WeatherDisplay:10.37,2013-01-24 14:51:00,
2013-01-24 09:54:00,32.2,19.1,30.29,North,355,8.1,8.1,58,0.00,CLR,SCT,0.00,WeatherDisplay:10.37,2013-01-24 14:54:00,
2013-01-24 09:56:00,32.2,19.1,30.29,North,355,5.0,5.0,58,0.00,CLR,SCT,0.00,WeatherDisplay:10.37,2013-01-24 14:56:00,
2013-01-24 09:59:00,32.4,19.3,30.30,North,360,6.0,6.0,58,0.00,CLR,SCT,0.00,WeatherDisplay:10.37,2013-01-24 14:59:00,
2013-01-24 10:01:00,32.5,19.3,30.30,North,351,5.0,5.0,58,0.00,CLR,SCT,0.00,WeatherDisplay:10.37,2013-01-24 15:01:00,
2013-01-24 10:02:00,32.7,19.5,30.30,North,355,6.9,6.9,58,0.00,CLR,SCT,0.00,WeatherDisplay:10.37,2013-01-24 15:02:00,
2013-01-24 10:04:00,32.7,19.5,30.30,North,360,4.6,4.6,58,0.00,CLR,SCT,0.00,WeatherDisplay:10.37,2013-01-24 15:04:00,
2013-01-24 10:06:00,32.8,19.2,30.30,NNW,348,9.2,9.2,57,0.00,CLR,SCT,0.00,WeatherDisplay:10.37,2013-01-24 15:06:00,
2013-01-24 10:09:00,32.9,19.7,30.29,NE,35,6.9,6.9,58,0.00,CLR,SCT,0.00,WeatherDisplay:10.37,2013-01-24 15:09:00,
2013-01-24 10:11:00,33.1,19.1,30.29,North,355,10.4,10.4,56,0.00,CLR,SCT,0.00,WeatherDisplay:10.37,2013-01-24 15:11:00,
2013-01-24 10:13:00,33.1,19.1,30.29,NW,313,6.9,6.9,56,0.00,CLR,SCT,0.00,WeatherDisplay:10.37,2013-01-24 15:13:00,
2013-01-24 10:15:00,33.1,19.1,30.29,North,5,7.0,7.0,56,0.00,CLR,SCT,0.00,WeatherDisplay:10.37,2013-01-24 15:15:00,
2013-01-24 10:16:00,33.1,19.1,30.30,North,355,11.5,11.5,56,0.00,CLR,SCT,0.00,WeatherDisplay:10.37,2013-01-24 15:16:00,
2013-01-24 10:20:00,33.1,18.7,30.29,North,355,11.5,11.5,55,0.00,CLR,SCT,0.00,WeatherDisplay:10.37,2013-01-24 15:20:00,
2013-01-24 10:21:00,33.1,18.7,30.29,North,360,11.5,11.5,55,0.00,CLR,SCT,0.00,WeatherDisplay:10.37,2013-01-24 15:21:00,
2013-01-24 10:26:00,33.1,18.7,30.30,NNW,346,12.7,12.7,55,0.00,CLR,SCT,0.00,WeatherDisplay:10.37,2013-01-24 15:26:00,
2013-01-24 10:29:00,33.1,19.1,30.30,North,355,4.6,4.6,56,0.00,CLR,SCT,0.00,WeatherDisplay:10.37,2013-01-24 15:29:00,
2013-01-24 10:32:00,33.2,18.8,30.30,NNW,338,6.9,6.9,55,0.00,CLR,SCT,0.00,WeatherDisplay:10.37,2013-01-24 15:32:00,
2013-01-24 10:33:00,33.2,18.3,30.30,North,11,11.5,11.5,54,0.00,CLR,SCT,0.00,WeatherDisplay:10.37,2013-01-24 15:33:00,
2013-01-24 10:36:00,33.2,18.8,30.30,North,5,8.1,8.1,55,0.00,CLR,SCT,0.00,WeatherDisplay:10.37,2013-01-24 15:36:00,
2013-01-24 10:40:00,33.2,18.8,30.31,WNW,303,10.4,10.4,55,0.00,CLR,SCT,0.00,WeatherDisplay:10.37,2013-01-24 15:40:00,
2013-01-24 10:42:00,33.4,18.5,30.31,WNW,300,4.6,4.6,54,0.00,CLR,SCT,0.00,WeatherDisplay:10.37,2013-01-24 15:42:00,
2013-01-24 10:43:00,33.4,18.5,30.31,WNW,296,11.5,11.5,54,0.00,CLR,SCT,0.00,WeatherDisplay:10.37,2013-01-24 15:43:00,
2013-01-24 10:47:00,33.4,18.5,30.31,West,276,12.7,12.7,54,0.00,CLR,SCT,0.00,WeatherDisplay:10.37,2013-01-24 15:47:00,
2013-01-24 10:48:00,33.4,17.6,30.31,WNW,286,10.4,10.4,52,0.00,CLR,SCT,0.00,WeatherDisplay:10.37,2013-01-24 15:48:00,
2013-01-24 10:49:00,33.4,18.1,30.31,West,278,5.8,5.8,53,0.00,CLR,SCT,0.00,WeatherDisplay:10.37,2013-01-24 15:49:00,
2013-01-24 10:51:00,33.2,17.9,30.31,WNW,298,10.0,10.0,53,0.00,CLR,SCT,0.00,WeatherDisplay:10.37,2013-01-24 15:51:00,
2013-01-24 10:53:00,33.2,17.9,30.32,WNW,298,3.5,3.5,53,0.00,CLR,SCT,0.00,WeatherDisplay:10.37,2013-01-24 15:53:00,
2013-01-24 10:54:00,33.2,17.9,30.32,WSW,257,10.4,10.4,53,0.00,CLR,SCT,0.00,WeatherDisplay:10.37,2013-01-24 15:54:00,
2013-01-24 10:58:00,33.2,17.9,30.31,West,281,6.9,6.9,53,0.00,CLR,SCT,0.00,WeatherDisplay:10.37,2013-01-24 15:58:00,
2013-01-24 10:59:00,33.2,17.9,30.31,WNW,286,6.9,6.9,53,0.00,CLR,SCT,0.00,WeatherDisplay:10.37,2013-01-24 15:59:00,
2013-01-24 11:00:00,33.1,17.8,30.32,WNW,295,6.9,6.9,53,0.00,CLR,SCT,0.00,WeatherDisplay:10.37,2013-01-24 16:00:00,
2013-01-24 11:01:00,33.1,17.8,30.32,North,355,10.0,10.0,53,0.00,CLR,SCT,0.00,WeatherDisplay:10.37,2013-01-24 16:01:00,
2013-01-24 11:04:00,33.2,17.9,30.32,North,351,4.6,4.6,53,0.00,CLR,SCT,0.00,WeatherDisplay:10.37,2013-01-24 16:04:00,
2013-01-24 11:05:00,33.2,17.9,30.31,NNW,330,9.2,9.2,53,0.00,CLR,SCT,0.00,WeatherDisplay:10.37,2013-01-24 16:05:00,
2013-01-24 11:07:00,33.2,17.9,30.31,NNW,327,5.8,5.8,53,0.00,CLR,SCT,0.00,WeatherDisplay:10.37,2013-01-24 16:07:00,
2013-01-24 11:08:00,33.2,17.9,30.31,NNW,329,3.5,3.5,53,0.00,CLR,SCT,0.00,WeatherDisplay:10.37,2013-01-24 16:08:00,
2013-01-24 11:10:00,33.2,17.9,30.31,WNW,282,11.5,11.5,53,0.00,CLR,SCT,0.00,WeatherDisplay:10.37,2013-01-24 16:10:00,
2013-01-24 11:12:00,33.4,18.1,30.31,WNW,296,11.5,11.5,53,0.00,CLR,SCT,0.00,WeatherDisplay:10.37,2013-01-24 16:12:00,
2013-01-24 11:16:00,33.5,18.2,30.31,NNW,345,6.9,6.9,53,0.00,CLR,SCT,0.00,WeatherDisplay:10.37,2013-01-24 16:16:00,
2013-01-24 11:17:00,33.5,18.2,30.31,North,355,5.8,5.8,53,0.00,CLR,SCT,0.00,WeatherDisplay:10.37,2013-01-24 16:17:00,
2013-01-24 11:18:00,33.5,18.2,30.31,NNW,328,11.5,11.5,53,0.00,CLR,SCT,0.00,WeatherDisplay:10.37,2013-01-24 16:18:00,
2013-01-24 11:20:00,33.5,17.7,30.31,North,355,11.5,11.5,52,0.00,CLR,SCT,0.00,WeatherDisplay:10.37,2013-01-24 16:20:00,
2013-01-24 11:22:00,33.5,17.7,30.31,North,350,11.5,11.5,52,0.00,CLR,SCT,0.00,WeatherDisplay:10.37,2013-01-24 16:22:00,
2013-01-24 11:25:00,33.5,17.7,30.32,NNW,338,5.8,5.8,52,0.00,CLR,SCT,0.00,WeatherDisplay:10.37,2013-01-24 16:25:00,
2013-01-24 11:27:00,33.5,19.5,30.32,NW,325,5.8,5.8,56,0.00,CLR,SCT,0.00,WeatherDisplay:10.37,2013-01-24 16:27:00,
2013-01-24 11:32:00,33.5,17.7,30.33,West,263,6.9,6.9,52,0.00,CLR,SCT,0.00,WeatherDisplay:10.37,2013-01-24 16:32:00,
2013-01-24 11:33:00,33.5,17.7,30.32,West,279,5.8,5.8,52,0.00,CLR,SCT,0.00,WeatherDisplay:10.37,2013-01-24 16:33:00,
2013-01-24 11:34:00,33.5,17.7,30.33,WNW,283,5.0,5.0,52,0.00,CLR,SCT,0.00,WeatherDisplay:10.37,2013-01-24 16:34:00,
2013-01-24 11:38:00,33.5,17.7,30.33,NNW,328,1.1,1.1,52,0.00,CLR,SCT,0.00,WeatherDisplay:10.37,2013-01-24 16:38:00,
2013-01-24 11:39:00,33.5,17.7,30.33,NNW,341,1.1,1.1,52,0.00,CLR,SCT,0.00,WeatherDisplay:10.37,2013-01-24 16:39:00,
2013-01-24 11:43:00,33.7,17.5,30.33,NNW,333,5.8,5.8,51,0.00,CLR,SCT,0.00,WeatherDisplay:10.37,2013-01-24 16:43:00,
2013-01-24 11:44:00,33.7,17.9,30.33,NNW,346,1.1,1.1,52,0.00,CLR,SCT,0.00,WeatherDisplay:10.37,2013-01-24 16:44:00,
2013-01-24 11:45:00,33.7,17.9,30.33,North,9,9.2,9.2,52,0.00,CLR,SCT,0.00,WeatherDisplay:10.37,2013-01-24 16:45:00,
2013-01-24 11:49:00,33.5,17.3,30.33,NNW,336,10.4,10.4,51,0.00,CLR,SCT,0.00,WeatherDisplay:10.37,2013-01-24 16:49:00,
2013-01-24 11:50:00,33.5,17.3,30.33,NNW,338,4.6,4.6,51,0.00,CLR,SCT,0.00,WeatherDisplay:10.37,2013-01-24 16:50:00,
2013-01-24 11:54:00,33.5,16.8,30.32,North,355,9.2,9.2,50,0.00,CLR,SCT,0.00,WeatherDisplay:10.37,2013-01-24 16:54:00,
2013-01-24 11:55:00,33.5,16.8,30.32,WNW,294,6.9,6.9,50,0.00,CLR,SCT,0.00,WeatherDisplay:10.37,2013-01-24 16:55:00,
2013-01-24 12:00:00,33.4,16.7,30.33,NW,321,1.1,1.1,50,0.00,CLR,SCT,0.00,WeatherDisplay:10.37,2013-01-24 17:00:00,
2013-01-24 12:02:00,33.5,16.8,30.32,WNW,294,7.0,7.0,50,0.00,CLR,SCT,0.00,WeatherDisplay:10.37,2013-01-24 17:02:00,
2013-01-24 12:05:00,33.5,16.8,30.31,NNW,343,6.9,6.9,50,0.00,CLR,SCT,0.00,WeatherDisplay:10.37,2013-01-24 17:05:00,
2013-01-24 12:06:00,33.5,16.8,30.31,North,355,9.0,9.0,50,0.00,CLR,SCT,0.00,WeatherDisplay:10.37,2013-01-24 17:06:00,
2013-01-24 12:07:00,33.5,16.4,30.31,North,5,9.2,9.2,49,0.00,CLR,SCT,0.00,WeatherDisplay:10.37,2013-01-24 17:07:00,
2013-01-24 12:08:00,33.5,16.4,30.31,North,360,9.2,9.2,49,0.00,CLR,SCT,0.00,WeatherDisplay:10.37,2013-01-24 17:08:00,
2013-01-24 12:12:00,33.5,16.8,30.31,West,267,10.4,10.4,50,0.00,CLR,SCT,0.00,WeatherDisplay:10.37,2013-01-24 17:12:00,
2013-01-24 12:14:00,33.4,15.8,30.31,West,281,6.9,6.9,48,0.00,CLR,SCT,0.00,WeatherDisplay:10.37,2013-01-24 17:14:00,
2013-01-24 12:16:00,33.4,15.8,30.32,NW,311,1.1,1.1,48,0.00,CLR,SCT,0.00,WeatherDisplay:10.37,2013-01-24 17:16:00,
2013-01-24 12:17:00,33.4,15.8,30.32,WNW,299,5.8,5.8,48,0.00,CLR,SCT,0.00,WeatherDisplay:10.37,2013-01-24 17:17:00,
2013-01-24 12:22:00,33.2,14.6,30.32,North,5,10.4,10.4,46,0.00,CLR,SCT,0.00,WeatherDisplay:10.37,2013-01-24 17:22:00,
2013-01-24 12:24:00,33.2,14.6,30.32,WNW,288,5.8,5.8,46,0.00,CLR,SCT,0.00,WeatherDisplay:10.37,2013-01-24 17:24:00,
2013-01-24 12:27:00,33.1,15.0,30.31,North,355,11.5,11.5,47,0.00,CLR,SCT,0.00,WeatherDisplay:10.37,2013-01-24 17:27:00,
2013-01-24 12:28:00,33.1,14.5,30.31,North,355,10.4,10.4,46,0.00,CLR,SCT,0.00,WeatherDisplay:10.37,2013-01-24 17:28:00,
2013-01-24 12:32:00,33.2,15.1,30.32,NW,319,5.0,5.0,47,0.00,CLR,SCT,0.00,WeatherDisplay:10.37,2013-01-24 17:32:00,
2013-01-24 12:33:00,33.2,15.1,30.32,NW,319,4.6,4.6,47,0.00,CLR,SCT,0.00,WeatherDisplay:10.37,2013-01-24 17:33:00,
2013-01-24 12:34:00,33.2,15.1,30.32,NW,317,5.8,5.8,47,0.00,CLR,SCT,0.00,WeatherDisplay:10.37,2013-01-24 17:34:00,
2013-01-24 12:36:00,33.2,14.6,30.31,NW,316,6.9,6.9,46,0.00,CLR,SCT,0.00,WeatherDisplay:10.37,2013-01-24 17:36:00,
2013-01-24 12:38:00,33.2,15.1,30.31,WSW,256,6.9,6.9,47,0.00,CLR,SCT,0.00,WeatherDisplay:10.37,2013-01-24 17:38:00,
2013-01-24 12:41:00,33.2,15.1,30.31,West,275,5.0,5.0,47,0.00,CLR,SCT,0.00,WeatherDisplay:10.37,2013-01-24 17:41:00,
2013-01-24 12:44:00,33.4,14.8,30.31,NNW,337,4.6,4.6,46,0.00,CLR,SCT,0.00,WeatherDisplay:10.37,2013-01-24 17:44:00,
2013-01-24 12:47:00,33.4,15.3,30.31,WNW,284,6.9,6.9,47,0.00,CLR,SCT,0.00,WeatherDisplay:10.37,2013-01-24 17:47:00,
2013-01-24 12:49:00,33.4,14.8,30.32,WSW,244,6.9,6.9,46,0.00,CLR,SCT,0.00,WeatherDisplay:10.37,2013-01-24 17:49:00,
2013-01-24 12:51:00,33.4,14.8,30.31,West,273,9.2,9.2,46,0.00,CLR,SCT,0.00,WeatherDisplay:10.37,2013-01-24 17:51:00,
2013-01-24 12:53:00,33.5,14.9,30.31,WNW,294,6.9,6.9,46,0.00,CLR,SCT,0.00,WeatherDisplay:10.37,2013-01-24 17:53:00,
2013-01-24 12:54:00,33.5,14.9,30.31,West,261,6.9,6.9,46,0.00,CLR,SCT,0.00,WeatherDisplay:10.37,2013-01-24 17:54:00,
2013-01-24 12:56:00,33.5,14.4,30.31,West,269,8.1,8.1,45,0.00,CLR,SCT,0.00,WeatherDisplay:10.37,2013-01-24 17:56:00,
2013-01-24 12:58:00,33.4,14.3,30.31,West,272,6.9,6.9,45,0.00,CLR,SCT,0.00,WeatherDisplay:10.37,2013-01-24 17:58:00,
2013-01-24 12:59:00,33.4,14.3,30.31,West,272,3.5,3.5,45,0.00,CLR,SCT,0.00,WeatherDisplay:10.37,2013-01-24 17:59:00,
2013-01-24 13:03:00,33.2,14.1,30.31,NE,44,15.0,15.0,45,0.00,CLR,SCT,0.00,WeatherDisplay:10.37,2013-01-24 18:03:00,
2013-01-24 13:05:00,33.2,14.1,30.31,North,10,9.2,9.2,45,0.00,CLR,SCT,0.00,WeatherDisplay:10.37,2013-01-24 18:05:00,
2013-01-24 13:08:00,33.2,14.1,30.31,North,9,5.8,5.8,45,0.00,CLR,SCT,0.00,WeatherDisplay:10.37,2013-01-24 18:08:00,
2013-01-24 13:10:00,33.2,14.1,30.31,North,9,0.0,0.0,45,0.00,CLR,SCT,0.00,WeatherDisplay:10.37,2013-01-24 18:10:00,
2013-01-24 13:15:00,33.5,14.4,30.31,West,269,6.9,6.9,45,0.00,CLR,SCT,0.00,WeatherDisplay:10.37,2013-01-24 18:15:00,
2013-01-24 13:16:00,33.7,14.6,30.31,NNW,334,6.0,6.0,45,0.00,CLR,SCT,0.00,WeatherDisplay:10.37,2013-01-24 18:16:00,
2013-01-24 13:17:00,33.7,14.1,30.31,North,351,9.2,9.2,44,0.00,CLR,SCT,0.00,WeatherDisplay:10.37,2013-01-24 18:17:00,
2013-01-24 13:20:00,33.7,13.5,30.31,North,9,1.1,1.1,43,0.00,CLR,SCT,0.00,WeatherDisplay:10.37,2013-01-24 18:20:00,
2013-01-24 13:22:00,33.8,14.7,30.30,North,9,0.0,0.0,45,0.00,CLR,SCT,0.00,WeatherDisplay:10.37,2013-01-24 18:22:00,
2013-01-24 13:26:00,33.8,14.2,30.30,NNE,16,6.9,6.9,44,0.00,CLR,SCT,0.00,WeatherDisplay:10.37,2013-01-24 18:26:00,
2013-01-24 13:28:00,33.8,14.2,30.30,NNE,16,1.1,1.1,44,0.00,CLR,SCT,0.00,WeatherDisplay:10.37,2013-01-24 18:28:00,
2013-01-24 13:30:00,33.8,14.7,30.31,NNE,22,8.1,8.1,45,0.00,CLR,SCT,0.00,WeatherDisplay:10.37,2013-01-24 18:30:00,
2013-01-24 13:33:00,34.0,14.9,30.31,North,5,5.8,5.8,45,0.00,CLR,SCT,0.00,WeatherDisplay:10.37,2013-01-24 18:33:00,
2013-01-24 13:35:00,34.0,14.9,30.31,North,355,11.5,11.5,45,0.00,CLR,SCT,0.00,WeatherDisplay:10.37,2013-01-24 18:35:00,
2013-01-24 13:39:00,33.8,14.7,30.30,NNE,12,10.4,10.4,45,0.00,CLR,SCT,0.00,WeatherDisplay:10.37,2013-01-24 18:39:00,
2013-01-24 13:40:00,33.8,14.2,30.30,NNE,22,12.7,12.7,44,0.00,CLR,SCT,0.00,WeatherDisplay:10.37,2013-01-24 18:40:00,
2013-01-24 13:42:00,33.8,14.2,30.30,NNE,32,17.3,17.3,44,0.00,CLR,SCT,0.00,WeatherDisplay:10.37,2013-01-24 18:42:00,
2013-01-24 13:45:00,33.5,14.4,30.30,NE,40,10.4,10.4,45,0.00,CLR,SCT,0.00,WeatherDisplay:10.37,2013-01-24 18:45:00,
2013-01-24 13:48:00,33.4,14.3,30.30,ENE,62,4.0,4.0,45,0.00,CLR,SCT,0.00,WeatherDisplay:10.37,2013-01-24 18:48:00,
2013-01-24 13:52:00,33.4,14.3,30.30,NE,47,11.5,11.5,45,0.00,CLR,SCT,0.00,WeatherDisplay:10.37,2013-01-24 18:52:00,
2013-01-24 13:54:00,33.4,14.3,30.30,NNE,16,12.7,12.7,45,0.00,CLR,SCT,0.00,WeatherDisplay:10.37,2013-01-24 18:54:00,
2013-01-24 13:55:00,33.4,14.3,30.30,NNE,21,12.7,12.7,45,0.00,CLR,SCT,0.00,WeatherDisplay:10.37,2013-01-24 18:55:00,
2013-01-24 13:58:00,33.5,14.4,30.29,NE,51,11.5,11.5,45,0.00,CLR,SCT,0.00,WeatherDisplay:10.37,2013-01-24 18:58:00,
2013-01-24 13:59:00,33.5,14.4,30.29,NE,45,13.0,13.0,45,0.00,CLR,SCT,0.00,WeatherDisplay:10.37,2013-01-24 18:59:00,
2013-01-24 14:00:00,33.5,13.9,30.29,NNE,13,12.7,12.7,44,0.00,CLR,SCT,0.00,WeatherDisplay:10.37,2013-01-24 19:00:00,
2013-01-24 14:01:00,33.5,13.9,30.29,NE,43,12.7,12.7,44,0.00,CLR,SCT,0.00,WeatherDisplay:10.37,2013-01-24 19:01:00,
2013-01-24 14:05:00,33.4,13.8,30.29,NE,34,12.0,12.0,44,0.00,CLR,SCT,0.00,WeatherDisplay:10.37,2013-01-24 19:05:00,
2013-01-24 14:06:00,33.4,13.8,30.29,NE,47,11.5,11.5,44,0.00,CLR,SCT,0.00,WeatherDisplay:10.37,2013-01-24 19:06:00,
2013-01-24 14:07:00,33.4,13.8,30.29,NE,44,11.5,11.5,44,0.00,CLR,SCT,0.00,WeatherDisplay:10.37,2013-01-24 19:07:00,
2013-01-24 14:08:00,33.4,13.8,30.29,NE,55,11.5,11.5,44,0.00,CLR,SCT,0.00,WeatherDisplay:10.37,2013-01-24 19:08:00,
2013-01-24 14:10:00,33.2,13.1,30.29,ENE,77,8.1,8.1,43,0.00,CLR,SCT,0.00,WeatherDisplay:10.37,2013-01-24 19:10:00,
2013-01-24 14:12:00,33.1,13.0,30.29,NE,37,13.0,13.0,43,0.00,CLR,SCT,0.00,WeatherDisplay:10.37,2013-01-24 19:12:00,
2013-01-24 14:15:00,32.9,12.8,30.30,NE,38,10.4,10.4,43,0.00,CLR,SCT,0.00,WeatherDisplay:10.37,2013-01-24 19:15:00,
2013-01-24 14:16:00,32.8,12.7,30.29,ENE,58,8.1,8.1,43,0.00,CLR,SCT,0.00,WeatherDisplay:10.37,2013-01-24 19:16:00,
2013-01-24 14:18:00,32.9,13.3,30.29,ENE,60,11.5,11.5,44,0.00,CLR,SCT,0.00,WeatherDisplay:10.37,2013-01-24 19:18:00,
2013-01-24 14:20:00,32.9,12.8,30.29,ENE,65,5.8,5.8,43,0.00,CLR,SCT,0.00,WeatherDisplay:10.37,2013-01-24 19:20:00,
2013-01-24 14:23:00,32.8,12.7,30.29,NE,36,14.0,14.0,43,0.00,CLR,SCT,0.00,WeatherDisplay:10.37,2013-01-24 19:23:00,
2013-01-24 14:25:00,32.8,12.7,30.29,NE,34,9.2,9.2,43,0.00,CLR,SCT,0.00,WeatherDisplay:10.37,2013-01-24 19:25:00,
2013-01-24 14:26:00,32.8,12.2,30.29,East,82,9.2,9.2,42,0.00,CLR,SCT,0.00,WeatherDisplay:10.37,2013-01-24 19:26:00,
2013-01-24 14:28:00,32.8,12.7,30.29,NE,38,9.2,9.2,43,0.00,CLR,SCT,0.00,WeatherDisplay:10.37,2013-01-24 19:28:00,
2013-01-24 14:30:00,32.7,12.6,30.29,East,79,11.5,11.5,43,0.00,CLR,SCT,0.00,WeatherDisplay:10.37,2013-01-24 19:30:00,
2013-01-24 14:33:00,32.7,12.1,30.30,ENE,75,10.4,10.4,42,0.00,CLR,SCT,0.00,WeatherDisplay:10.37,2013-01-24 19:33:00,
2013-01-24 14:35:00,32.5,12.5,30.30,ENE,57,5.8,5.8,43,0.00,CLR,SCT,0.00,WeatherDisplay:10.37,2013-01-24 19:35:00,
2013-01-24 14:37:00,32.7,12.6,30.30,NNE,27,13.8,13.8,43,0.00,CLR,SCT,0.00,WeatherDisplay:10.37,2013-01-24 19:37:00,
2013-01-24 14:38:00,32.7,12.6,30.30,NE,46,11.5,11.5,43,0.00,CLR,SCT,0.00,WeatherDisplay:10.37,2013-01-24 19:38:00,
2013-01-24 14:42:00,32.7,12.6,30.30,ENE,59,10.4,10.4,43,0.00,CLR,SCT,0.00,WeatherDisplay:10.37,2013-01-24 19:42:00,
2013-01-24 14:43:00,32.8,12.2,30.30,ENE,61,12.7,12.7,42,0.00,CLR,SCT,0.00,WeatherDisplay:10.37,2013-01-24 19:43:00,
2013-01-24 14:45:00,32.8,12.2,30.31,ENE,60,11.5,11.5,42,0.00,CLR,SCT,0.00,WeatherDisplay:10.37,2013-01-24 19:45:00,
2013-01-24 14:48:00,32.9,12.3,30.31,ENE,57,10.4,10.4,42,0.00,CLR,SCT,0.00,WeatherDisplay:10.37,2013-01-24 19:48:00,
2013-01-24 14:50:00,32.9,12.8,30.31,NE,38,11.5,11.5,43,0.00,CLR,SCT,0.00,WeatherDisplay:10.37,2013-01-24 19:50:00,
2013-01-24 14:51:00,32.9,12.8,30.31,NE,42,11.5,11.5,43,0.00,CLR,SCT,0.00,WeatherDisplay:10.37,2013-01-24 19:51:00,
2013-01-24 14:54:00,33.1,12.5,30.31,ENE,59,10.4,10.4,42,0.00,CLR,SCT,0.00,WeatherDisplay:10.37,2013-01-24 19:54:00,
2013-01-24 14:56:00,33.1,12.5,30.30,ENE,59,12.7,12.7,42,0.00,CLR,SCT,0.00,WeatherDisplay:10.37,2013-01-24 19:56:00,
2013-01-24 15:00:00,32.9,12.3,30.31,NNE,33,11.5,11.5,42,0.00,CLR,SCT,0.00,WeatherDisplay:10.37,2013-01-24 20:00:00,
2013-01-24 15:01:00,32.9,12.3,30.31,NE,34,11.5,11.5,42,0.00,CLR,SCT,0.00,WeatherDisplay:10.37,2013-01-24 20:01:00,
2013-01-24 15:05:00,32.9,11.7,30.31,ENE,60,10.4,10.4,41,0.00,CLR,SCT,0.00,WeatherDisplay:10.37,2013-01-24 20:05:00,
2013-01-24 15:06:00,32.9,11.7,30.31,NNE,28,13.8,13.8,41,0.00,CLR,SCT,0.00,WeatherDisplay:10.37,2013-01-24 20:06:00,
2013-01-24 15:09:00,32.8,11.6,30.31,NE,51,10.4,10.4,41,0.00,CLR,SCT,0.00,WeatherDisplay:10.37,2013-01-24 20:09:00,
2013-01-24 15:10:00,32.8,11.6,30.31,NE,51,9.2,9.2,41,0.00,CLR,SCT,0.00,WeatherDisplay:10.37,2013-01-24 20:10:00,
2013-01-24 15:15:00,32.7,11.0,30.31,NE,38,10.4,10.4,40,0.00,CLR,SCT,0.00,WeatherDisplay:10.37,2013-01-24 20:15:00,
2013-01-24 15:16:00,32.5,11.4,30.31,NNE,28,11.5,11.5,41,0.00,CLR,SCT,0.00,WeatherDisplay:10.37,2013-01-24 20:16:00,
2013-01-24 15:21:00,32.5,11.4,30.32,NNE,31,9.0,9.0,41,0.00,CLR,SCT,0.00,WeatherDisplay:10.37,2013-01-24 20:21:00,
2013-01-24 15:22:00,32.5,10.8,30.33,NE,46,9.2,9.2,40,0.00,CLR,SCT,0.00,WeatherDisplay:10.37,2013-01-24 20:22:00,
2013-01-24 15:23:00,32.5,11.4,30.33,ENE,69,9.2,9.2,41,0.00,CLR,SCT,0.00,WeatherDisplay:10.37,2013-01-24 20:23:00,
2013-01-24 15:28:00,32.4,10.7,30.31,ENE,75,9.2,9.2,40,0.00,CLR,SCT,0.00,WeatherDisplay:10.37,2013-01-24 20:28:00,
2013-01-24 15:30:00,32.4,10.2,30.32,ENE,61,12.0,12.0,39,0.00,CLR,SCT,0.00,WeatherDisplay:10.37,2013-01-24 20:30:00,
2013-01-24 15:31:00,32.4,10.2,30.32,ENE,71,11.5,11.5,39,0.00,CLR,SCT,0.00,WeatherDisplay:10.37,2013-01-24 20:31:00,
2013-01-24 15:34:00,32.2,10.0,30.32,NE,53,15.0,15.0,39,0.00,CLR,SCT,0.00,WeatherDisplay:10.37,2013-01-24 20:34:00,
2013-01-24 15:36:00,32.1,9.9,30.33,NE,40,11.5,11.5,39,0.00,CLR,SCT,0.00,WeatherDisplay:10.37,2013-01-24 20:36:00,
2013-01-24 15:41:00,32.1,9.9,30.33,NE,40,12.0,12.0,39,0.00,CLR,SCT,0.00,WeatherDisplay:10.37,2013-01-24 20:41:00,
2013-01-24 15:42:00,32.1,9.9,30.33,NE,55,11.5,11.5,39,0.00,CLR,SCT,0.00,WeatherDisplay:10.37,2013-01-24 20:42:00,
2013-01-24 15:43:00,31.9,9.7,30.33,ENE,65,12.7,12.7,39,0.00,CLR,SCT,0.00,WeatherDisplay:10.37,2013-01-24 20:43:00,
2013-01-24 15:48:00,31.8,9.6,30.32,ENE,60,9.2,9.2,39,0.00,CLR,SCT,0.00,WeatherDisplay:10.37,2013-01-24 20:48:00,
2013-01-24 15:49:00,31.8,9.6,30.33,NNE,31,11.5,11.5,39,0.00,CLR,SCT,0.00,WeatherDisplay:10.37,2013-01-24 20:49:00,
2013-01-24 15:52:00,31.8,9.6,30.32,ENE,67,7.0,7.0,39,0.00,CLR,SCT,0.00,WeatherDisplay:10.37,2013-01-24 20:52:00,
2013-01-24 15:54:00,31.8,9.6,30.33,ENE,76,8.1,8.1,39,0.00,CLR,SCT,0.00,WeatherDisplay:10.37,2013-01-24 20:54:00,
2013-01-24 15:59:00,31.8,9.6,30.33,NE,47,6.9,6.9,39,0.00,CLR,SCT,0.00,WeatherDisplay:10.37,2013-01-24 20:59:00,
2013-01-24 16:00:00,31.8,9.6,30.33,ENE,74,9.2,9.2,39,0.00,CLR,SCT,0.00,WeatherDisplay:10.37,2013-01-24 21:00:00,
2013-01-24 16:03:00,31.9,9.7,30.33,NE,51,9.2,9.2,39,0.00,CLR,SCT,0.00,WeatherDisplay:10.37,2013-01-24 21:03:00,
2013-01-24 16:04:00,31.9,9.7,30.33,NE,51,6.0,6.0,39,0.00,CLR,SCT,0.00,WeatherDisplay:10.37,2013-01-24 21:04:00,
2013-01-24 16:09:00,31.9,9.7,30.33,ENE,58,11.5,11.5,39,0.00,CLR,SCT,0.00,WeatherDisplay:10.37,2013-01-24 21:09:00,
2013-01-24 16:11:00,31.9,9.7,30.33,ENE,63,11.5,11.5,39,0.00,CLR,SCT,0.00,WeatherDisplay:10.37,2013-01-24 21:11:00,
2013-01-24 16:12:00,31.9,9.7,30.33,ENE,63,12.7,12.7,39,0.00,CLR,SCT,0.00,WeatherDisplay:10.37,2013-01-24 21:12:00,
2013-01-24 16:14:00,31.9,9.1,30.33,NE,55,10.4,10.4,38,0.00,CLR,SCT,0.00,WeatherDisplay:10.37,2013-01-24 21:14:00,
2013-01-24 16:17:00,31.8,9.0,30.33,ENE,59,8.1,8.1,38,0.00,CLR,SCT,0.00,WeatherDisplay:10.37,2013-01-24 21:17:00,
2013-01-24 16:18:00,31.8,9.6,30.33,NE,55,10.4,10.4,39,0.00,CLR,SCT,0.00,WeatherDisplay:10.37,2013-01-24 21:18:00,
2013-01-24 16:22:00,31.8,9.0,30.33,NNE,32,8.1,8.1,38,0.00,CLR,SCT,0.00,WeatherDisplay:10.37,2013-01-24 21:22:00,
2013-01-24 16:24:00,31.6,8.9,30.33,NE,37,10.4,10.4,38,0.00,CLR,SCT,0.00,WeatherDisplay:10.37,2013-01-24 21:24:00,
2013-01-24 16:27:00,31.6,8.9,30.34,NE,36,9.2,9.2,38,0.00,CLR,SCT,0.00,WeatherDisplay:10.37,2013-01-24 21:27:00,
2013-01-24 16:29:00,31.6,8.9,30.34,ENE,57,6.9,6.9,38,0.00,CLR,SCT,0.00,WeatherDisplay:10.37,2013-01-24 21:29:00,
2013-01-24 16:32:00,31.6,8.9,30.33,ENE,66,8.1,8.1,38,0.00,CLR,SCT,0.00,WeatherDisplay:10.37,2013-01-24 21:32:00,
2013-01-24 16:35:00,31.6,9.4,30.34,ENE,73,6.9,6.9,39,0.00,CLR,SCT,0.00,WeatherDisplay:10.37,2013-01-24 21:35:00,
2013-01-24 16:37:00,31.6,8.9,30.33,ENE,73,5.8,5.8,38,0.00,CLR,SCT,0.00,WeatherDisplay:10.37,2013-01-24 21:37:00,
2013-01-24 16:42:00,31.5,9.4,30.33,NE,38,10.4,10.4,39,0.00,CLR,SCT,0.00,WeatherDisplay:10.37,2013-01-24 21:42:00,
2013-01-24 16:45:00,31.5,9.4,30.34,NE,55,6.9,6.9,39,0.00,CLR,SCT,0.00,WeatherDisplay:10.37,2013-01-24 21:45:00,
2013-01-24 16:47:00,31.3,9.2,30.34,NE,55,5.0,5.0,39,0.00,CLR,SCT,0.00,WeatherDisplay:10.37,2013-01-24 21:47:00,
2013-01-24 16:51:00,31.2,9.1,30.35,ENE,67,9.2,9.2,39,0.00,CLR,SCT,0.00,WeatherDisplay:10.37,2013-01-24 21:51:00,
2013-01-24 16:53:00,31.2,9.1,30.35,NE,44,5.0,5.0,39,0.00,CLR,SCT,0.00,WeatherDisplay:10.37,2013-01-24 21:53:00,
2013-01-24 16:58:00,30.9,8.8,30.35,NE,56,4.6,4.6,39,0.00,CLR,SCT,0.00,WeatherDisplay:10.37,2013-01-24 21:58:00,
2013-01-24 17:01:00,30.9,8.8,30.34,ENE,69,6.9,6.9,39,0.00,CLR,SCT,0.00,WeatherDisplay:10.37,2013-01-24 22:01:00,
2013-01-24 17:05:00,30.7,8.6,30.34,ENE,66,6.9,6.9,39,0.00,CLR,SCT,0.00,WeatherDisplay:10.37,2013-01-24 22:05:00,
2013-01-24 17:06:00,30.6,8.5,30.34,ENE,66,6.9,6.9,39,0.00,CLR,SCT,0.00,WeatherDisplay:10.37,2013-01-24 22:06:00,
2013-01-24 17:07:00,30.6,8.5,30.34,ENE,66,5.0,5.0,39,0.00,CLR,SCT,0.00,WeatherDisplay:10.37,2013-01-24 22:07:00,
2013-01-24 17:08:00,30.6,8.0,30.35,ENE,66,4.6,4.6,38,0.00,CLR,SCT,0.00,WeatherDisplay:10.37,2013-01-24 22:08:00,
2013-01-24 17:10:00,30.6,8.5,30.35,ENE,66,6.0,6.0,39,0.00,CLR,SCT,0.00,WeatherDisplay:10.37,2013-01-24 22:10:00,
2013-01-24 17:12:00,30.6,8.5,30.35,ENE,65,5.8,5.8,39,0.00,CLR,SCT,0.00,WeatherDisplay:10.37,2013-01-24 22:12:00,
2013-01-24 17:16:00,30.4,8.4,30.35,ENE,62,5.0,5.0,39,0.00,CLR,SCT,0.00,WeatherDisplay:10.37,2013-01-24 22:16:00,
2013-01-24 17:18:00,30.4,8.4,30.36,ENE,62,5.8,5.8,39,0.00,CLR,SCT,0.00,WeatherDisplay:10.37,2013-01-24 22:18:00,
2013-01-24 17:19:00,30.4,8.4,30.36,ENE,62,3.5,3.5,39,0.00,CLR,SCT,0.00,WeatherDisplay:10.37,2013-01-24 22:19:00,
2013-01-24 17:22:00,30.4,8.4,30.36,ENE,61,4.6,4.6,39,0.00,CLR,SCT,0.00,WeatherDisplay:10.37,2013-01-24 22:22:00,
2013-01-24 17:25:00,30.3,8.3,30.36,ENE,61,5.0,5.0,39,0.00,CLR,SCT,0.00,WeatherDisplay:10.37,2013-01-24 22:25:00,
2013-01-24 17:29:00,30.1,8.1,30.36,ENE,62,5.8,5.8,39,0.00,CLR,SCT,0.00,WeatherDisplay:10.37,2013-01-24 22:29:00,
2013-01-24 17:30:00,30.1,8.7,30.36,ENE,62,4.6,4.6,40,0.00,CLR,SCT,0.00,WeatherDisplay:10.37,2013-01-24 22:30:00,
2013-01-24 17:36:00,29.8,8.4,30.36,ENE,63,5.8,5.8,40,0.00,CLR,SCT,0.00,WeatherDisplay:10.37,2013-01-24 22:36:00,
2013-01-24 17:37:00,29.8,8.4,30.36,ENE,63,5.8,5.8,40,0.00,CLR,SCT,0.00,WeatherDisplay:10.37,2013-01-24 22:37:00,
2013-01-24 17:42:00,29.7,8.8,30.36,ENE,63,6.9,6.9,41,0.00,CLR,SCT,0.00,WeatherDisplay:10.37,2013-01-24 22:42:00,
2013-01-24 17:43:00,29.5,8.7,30.36,ENE,63,5.8,5.8,41,0.00,CLR,SCT,0.00,WeatherDisplay:10.37,2013-01-24 22:43:00,
2013-01-24 17:44:00,29.5,8.7,30.36,ENE,63,6.0,6.0,41,0.00,CLR,SCT,0.00,WeatherDisplay:10.37,2013-01-24 22:44:00,
2013-01-24 17:45:00,29.5,8.7,30.36,ENE,63,5.8,5.8,41,0.00,CLR,SCT,0.00,WeatherDisplay:10.37,2013-01-24 22:45:00,
2013-01-24 17:47:00,29.4,8.6,30.36,ENE,63,5.8,5.8,41,0.00,CLR,SCT,0.00,WeatherDisplay:10.37,2013-01-24 22:47:00,
2013-01-24 17:50:00,29.3,9.0,30.36,ENE,63,4.6,4.6,42,0.00,CLR,SCT,0.00,WeatherDisplay:10.37,2013-01-24 22:50:00,
2013-01-24 17:52:00,29.1,8.8,30.36,ENE,63,4.0,4.0,42,0.00,CLR,SCT,0.00,WeatherDisplay:10.37,2013-01-24 22:52:00,
2013-01-24 17:53:00,29.1,8.8,30.36,ENE,63,5.0,5.0,42,0.00,CLR,SCT,0.00,WeatherDisplay:10.37,2013-01-24 22:53:00,
2013-01-24 17:55:00,29.0,9.3,30.36,ENE,63,5.0,5.0,43,0.00,CLR,SCT,0.00,WeatherDisplay:10.37,2013-01-24 22:55:00,
2013-01-24 17:58:00,28.7,9.0,30.36,ENE,63,3.5,3.5,43,0.00,CLR,SCT,0.00,WeatherDisplay:10.37,2013-01-24 22:58:00,
2013-01-24 18:00:00,28.5,8.8,30.36,ENE,63,3.5,3.5,43,0.00,CLR,SCT,0.00,WeatherDisplay:10.37,2013-01-24 23:00:00,
2013-01-24 18:05:00,28.2,8.5,30.36,ENE,63,4.6,4.6,43,0.00,CLR,SCT,0.00,WeatherDisplay:10.37,2013-01-24 23:05:00,
2013-01-24 18:07:00,28.1,8.4,30.36,ENE,63,4.0,4.0,43,0.00,CLR,SCT,0.00,WeatherDisplay:10.37,2013-01-24 23:07:00,
2013-01-24 18:12:00,27.6,8.0,30.36,ENE,63,4.6,4.6,43,0.00,CLR,SCT,0.00,WeatherDisplay:10.37,2013-01-24 23:12:00,
2013-01-24 18:13:00,27.6,8.0,30.36,ENE,63,4.6,4.6,43,0.00,CLR,SCT,0.00,WeatherDisplay:10.37,2013-01-24 23:13:00,
2013-01-24 18:17:00,27.3,7.7,30.37,ENE,63,5.0,5.0,43,0.00,CLR,SCT,0.00,WeatherDisplay:10.37,2013-01-24 23:17:00,
2013-01-24 18:19:00,27.3,7.7,30.37,ENE,62,4.6,4.6,43,0.00,CLR,SCT,0.00,WeatherDisplay:10.37,2013-01-24 23:19:00,
2013-01-24 18:23:00,27.2,7.6,30.38,ENE,62,3.5,3.5,43,0.00,CLR,SCT,0.00,WeatherDisplay:10.37,2013-01-24 23:23:00,
2013-01-24 18:25:00,27.2,7.6,30.38,ENE,62,4.0,4.0,43,0.00,CLR,SCT,0.00,WeatherDisplay:10.37,2013-01-24 23:25:00,
2013-01-24 18:29:00,27.0,7.4,30.38,ENE,63,4.6,4.6,43,0.00,CLR,SCT,0.00,WeatherDisplay:10.37,2013-01-24 23:29:00,
2013-01-24 18:30:00,27.0,7.4,30.38,ENE,63,4.0,4.0,43,0.00,CLR,SCT,0.00,WeatherDisplay:10.37,2013-01-24 23:30:00,
2013-01-24 18:31:00,27.0,7.4,30.38,ENE,63,4.0,4.0,43,0.00,CLR,SCT,0.00,WeatherDisplay:10.37,2013-01-24 23:31:00,
2013-01-24 18:35:00,26.9,7.9,30.38,ENE,63,3.5,3.5,44,0.00,CLR,SCT,0.00,WeatherDisplay:10.37,2013-01-24 23:35:00,
2013-01-24 18:36:00,26.9,7.9,30.38,ENE,63,4.6,4.6,44,0.00,CLR,SCT,0.00,WeatherDisplay:10.37,2013-01-24 23:36:00,
2013-01-24 18:38:00,26.7,7.7,30.38,ENE,63,4.0,4.0,44,0.00,CLR,SCT,0.00,WeatherDisplay:10.37,2013-01-24 23:38:00,
2013-01-24 18:41:00,26.6,7.6,30.39,ENE,63,3.5,3.5,44,0.00,CLR,SCT,0.00,WeatherDisplay:10.37,2013-01-24 23:41:00,
2013-01-24 18:44:00,26.4,6.9,30.39,ENE,63,3.5,3.5,43,0.00,CLR,SCT,0.00,WeatherDisplay:10.37,2013-01-24 23:44:00,
2013-01-24 18:48:00,26.3,7.3,30.40,ENE,63,3.5,3.5,44,0.00,CLR,SCT,0.00,WeatherDisplay:10.37,2013-01-24 23:48:00,
2013-01-24 18:49:00,26.3,7.3,30.40,ENE,63,4.6,4.6,44,0.00,CLR,SCT,0.00,WeatherDisplay:10.37,2013-01-24 23:49:00,
2013-01-24 18:50:00,26.3,7.3,30.40,ENE,63,3.5,3.5,44,0.00,CLR,SCT,0.00,WeatherDisplay:10.37,2013-01-24 23:50:00,
2013-01-24 18:55:00,26.1,7.1,30.40,ENE,63,3.5,3.5,44,0.00,CLR,SCT,0.00,WeatherDisplay:10.37,2013-01-24 23:55:00,
2013-01-24 18:56:00,26.1,7.1,30.40,ENE,63,4.0,4.0,44,0.00,CLR,SCT,0.00,WeatherDisplay:10.37,2013-01-24 23:56:00,
2013-01-24 18:57:00,26.1,7.6,30.40,ENE,63,3.5,3.5,45,0.00,CLR,SCT,0.00,WeatherDisplay:10.37,2013-01-24 23:57:00,
2013-01-24 19:02:00,26.0,7.5,30.40,ENE,63,3.5,3.5,45,0.00,CLR,SCT,0.00,WeatherDisplay:10.37,2013-01-25 00:02:00,
2013-01-24 19:03:00,25.8,7.4,30.39,ENE,63,3.5,3.5,45,0.00,CLR,SCT,0.00,WeatherDisplay:10.37,2013-01-25 00:03:00,
2013-01-24 19:06:00,25.7,7.3,30.39,ENE,63,3.5,3.5,45,0.00,CLR,SCT,0.00,WeatherDisplay:10.37,2013-01-25 00:06:00,
2013-01-24 19:07:00,25.6,7.2,30.40,ENE,63,4.0,4.0,45,0.00,CLR,SCT,0.00,WeatherDisplay:10.37,2013-01-25 00:07:00,
2013-01-24 19:08:00,25.6,7.2,30.40,ENE,63,4.0,4.0,45,0.00,CLR,SCT,0.00,WeatherDisplay:10.37,2013-01-25 00:08:00,
2013-01-24 19:12:00,25.3,6.9,30.39,ENE,63,4.6,4.6,45,0.00,CLR,SCT,0.00,WeatherDisplay:10.37,2013-01-25 00:12:00,
2013-01-24 19:13:00,25.3,6.9,30.39,ENE,63,3.5,3.5,45,0.00,CLR,SCT,0.00,WeatherDisplay:10.37,2013-01-25 00:13:00,
2013-01-24 19:15:00,25.1,6.7,30.39,ENE,63,3.5,3.5,45,0.00,CLR,SCT,0.00,WeatherDisplay:10.37,2013-01-25 00:15:00,
2013-01-24 19:18:00,25.1,6.7,30.40,ENE,63,3.5,3.5,45,0.00,CLR,SCT,0.00,WeatherDisplay:10.37,2013-01-25 00:18:00,
2013-01-24 19:21:00,25.1,6.7,30.40,ENE,63,4.6,4.6,45,0.00,CLR,SCT,0.00,WeatherDisplay:10.37,2013-01-25 00:21:00,
2013-01-24 19:26:00,25.1,6.7,30.40,ENE,63,6.0,6.0,45,0.00,CLR,SCT,0.00,WeatherDisplay:10.37,2013-01-25 00:26:00,
2013-01-24 19:27:00,25.1,6.7,30.39,ENE,63,5.8,5.8,45,0.00,CLR,SCT,0.00,WeatherDisplay:10.37,2013-01-25 00:27:00,
2013-01-24 19:30:00,25.0,6.6,30.39,ENE,63,4.6,4.6,45,0.00,CLR,SCT,0.00,WeatherDisplay:10.37,2013-01-25 00:30:00,
2013-01-24 19:35:00,25.0,6.6,30.39,ENE,63,3.5,3.5,45,0.00,CLR,SCT,0.00,WeatherDisplay:10.37,2013-01-25 00:35:00,
2013-01-24 19:37:00,25.0,6.6,30.39,ENE,63,4.0,4.0,45,0.00,CLR,SCT,0.00,WeatherDisplay:10.37,2013-01-25 00:37:00,
2013-01-24 19:39:00,25.0,7.1,30.39,ENE,63,4.6,4.6,46,0.00,CLR,SCT,0.00,WeatherDisplay:10.37,2013-01-25 00:39:00,
2013-01-24 19:44:00,25.0,7.1,30.39,ENE,63,4.6,4.6,46,0.00,CLR,SCT,0.00,WeatherDisplay:10.37,2013-01-25 00:44:00,
2013-01-24 19:45:00,25.0,7.1,30.39,ENE,63,4.6,4.6,46,0.00,CLR,SCT,0.00,WeatherDisplay:10.37,2013-01-25 00:45:00,
2013-01-24 19:49:00,24.8,7.4,30.39,ENE,63,4.0,4.0,47,0.00,CLR,SCT,0.00,WeatherDisplay:10.37,2013-01-25 00:49:00,
2013-01-24 19:50:00,24.7,7.3,30.39,ENE,63,4.6,4.6,47,0.00,CLR,SCT,0.00,WeatherDisplay:10.37,2013-01-25 00:50:00,
2013-01-24 19:52:00,24.7,7.3,30.39,ENE,63,4.6,4.6,47,0.00,CLR,SCT,0.00,WeatherDisplay:10.37,2013-01-25 00:52:00,
2013-01-24 19:56:00,24.5,7.1,30.39,ENE,68,6.0,6.0,47,0.00,CLR,SCT,0.00,WeatherDisplay:10.37,2013-01-25 00:56:00,
2013-01-24 20:00:00,24.4,7.5,30.39,ENE,67,5.8,5.8,48,0.00,CLR,SCT,0.00,WeatherDisplay:10.37,2013-01-25 01:00:00,
2013-01-24 20:01:00,24.5,7.1,30.38,ENE,59,8.0,8.0,47,0.00,CLR,SCT,0.00,WeatherDisplay:10.37,2013-01-25 01:01:00,
2013-01-24 20:06:00,24.5,7.1,30.38,ENE,69,8.1,8.1,47,0.00,CLR,SCT,0.00,WeatherDisplay:10.37,2013-01-25 01:06:00,
2013-01-24 20:07:00,24.7,7.3,30.38,ENE,65,8.1,8.1,47,0.00,CLR,SCT,0.00,WeatherDisplay:10.37,2013-01-25 01:07:00,
2013-01-24 20:11:00,24.8,7.4,30.39,ENE,69,5.8,5.8,47,0.00,CLR,SCT,0.00,WeatherDisplay:10.37,2013-01-25 01:11:00,
2013-01-24 20:13:00,24.8,7.4,30.39,ENE,69,5.8,5.8,47,0.00,CLR,SCT,0.00,WeatherDisplay:10.37,2013-01-25 01:13:00,
2013-01-24 20:16:00,24.8,7.4,30.39,ENE,69,6.0,6.0,47,0.00,CLR,SCT,0.00,WeatherDisplay:10.37,2013-01-25 01:16:00,
2013-01-24 20:18:00,24.8,7.4,30.38,ENE,67,5.8,5.8,47,0.00,CLR,SCT,0.00,WeatherDisplay:10.37,2013-01-25 01:18:00,
2013-01-24 20:21:00,24.8,7.4,30.38,ENE,67,5.8,5.8,47,0.00,CLR,SCT,0.00,WeatherDisplay:10.37,2013-01-25 01:21:00,
2013-01-24 20:25:00,24.8,7.9,30.38,ENE,67,6.0,6.0,48,0.00,CLR,SCT,0.00,WeatherDisplay:10.37,2013-01-25 01:25:00,
2013-01-24 20:27:00,24.8,7.9,30.38,ENE,66,6.9,6.9,48,0.00,CLR,SCT,0.00,WeatherDisplay:10.37,2013-01-25 01:27:00,
2013-01-24 20:31:00,24.7,7.8,30.38,ENE,71,6.0,7.1,48,0.00,CLR,SCT,0.00,WeatherDisplay:10.37,2013-01-25 01:31:00,
2013-01-24 20:32:00,24.7,7.3,30.38,ENE,71,9.0,9.0,47,0.00,CLR,SCT,0.00,WeatherDisplay:10.37,2013-01-25 01:32:00,
2013-01-24 20:35:00,24.7,7.3,30.37,ENE,72,7.0,7.0,47,0.00,CLR,SCT,0.00,WeatherDisplay:10.37,2013-01-25 01:35:00,
2013-01-24 20:36:00,24.7,7.3,30.37,ENE,68,7.0,7.0,47,0.00,CLR,SCT,0.00,WeatherDisplay:10.37,2013-01-25 01:36:00,
2013-01-24 20:38:00,24.7,7.3,30.37,ENE,69,10.4,10.4,47,0.00,CLR,SCT,0.00,WeatherDisplay:10.37,2013-01-25 01:38:00,
2013-01-24 20:40:00,24.7,7.3,30.37,ENE,63,9.0,9.0,47,0.00,CLR,SCT,0.00,WeatherDisplay:10.37,2013-01-25 01:40:00,
2013-01-24 20:43:00,24.7,6.8,30.36,ENE,66,10.4,10.4,46,0.00,CLR,SCT,0.00,WeatherDisplay:10.37,2013-01-25 01:43:00,
2013-01-24 20:45:00,24.7,6.8,30.37,ENE,57,10.0,10.0,46,0.00,CLR,SCT,0.00,WeatherDisplay:10.37,2013-01-25 01:45:00,
2013-01-24 20:46:00,24.7,6.8,30.37,ENE,72,10.4,10.4,46,0.00,CLR,SCT,0.00,WeatherDisplay:10.37,2013-01-25 01:46:00,
2013-01-24 20:48:00,24.7,6.8,30.36,ENE,67,10.4,10.4,46,0.00,CLR,SCT,0.00,WeatherDisplay:10.37,2013-01-25 01:48:00,
2013-01-24 20:51:00,24.7,6.8,30.36,ENE,58,10.4,10.4,46,0.00,CLR,SCT,0.00,WeatherDisplay:10.37,2013-01-25 01:51:00,
2013-01-24 20:53:00,24.7,6.8,30.36,NE,53,10.4,10.4,46,0.00,CLR,SCT,0.00,WeatherDisplay:10.37,2013-01-25 01:53:00,
2013-01-24 20:56:00,24.7,6.8,30.35,ENE,74,11.5,11.5,46,0.00,CLR,SCT,0.00,WeatherDisplay:10.37,2013-01-25 01:56:00,
2013-01-24 20:57:00,24.7,6.8,30.35,ENE,61,11.5,11.5,46,0.00,CLR,SCT,0.00,WeatherDisplay:10.37,2013-01-25 01:57:00,
2013-01-24 20:59:00,24.7,6.8,30.35,ENE,63,10.4,10.4,46,0.00,CLR,SCT,0.00,WeatherDisplay:10.37,2013-01-25 01:59:00,
2013-01-24 21:03:00,24.7,6.8,30.35,ENE,61,11.5,11.5,46,0.00,CLR,SCT,0.00,WeatherDisplay:10.37,2013-01-25 02:03:00,
2013-01-24 21:04:00,24.7,6.8,30.35,ENE,63,11.5,11.5,46,0.00,CLR,SCT,0.00,WeatherDisplay:10.37,2013-01-25 02:04:00,
2013-01-24 21:06:00,24.7,6.8,30.35,NE,50,12.0,12.0,46,0.00,,SCT,0.00,WeatherDisplay:10.37,2013-01-25 02:06:00,
2013-01-24 21:09:00,24.7,6.8,30.35,ENE,61,11.5,11.5,46,0.00,,SCT,0.00,WeatherDisplay:10.37,2013-01-25 02:09:00,
2013-01-24 21:10:00,24.7,6.3,30.35,NE,55,11.5,11.5,45,0.00,,SCT,0.00,WeatherDisplay:10.37,2013-01-25 02:10:00,
2013-01-24 21:11:00,24.7,6.8,30.35,ENE,66,11.5,11.5,46,0.00,,SCT,0.00,WeatherDisplay:10.37,2013-01-25 02:11:00,
2013-01-24 21:14:00,24.7,6.8,30.34,ENE,57,10.4,10.4,46,0.00,,SCT,0.00,WeatherDisplay:10.37,2013-01-25 02:14:00,
2013-01-24 21:16:00,24.7,6.8,30.35,ENE,61,11.5,11.5,46,0.00,,SCT,0.00,WeatherDisplay:10.37,2013-01-25 02:16:00,
2013-01-24 21:17:00,24.7,6.3,30.35,NE,52,11.5,11.5,45,0.00,,SCT,0.00,WeatherDisplay:10.37,2013-01-25 02:17:00,
2013-01-24 21:19:00,24.7,6.8,30.35,ENE,67,10.4,10.4,46,0.00,,SCT,0.00,WeatherDisplay:10.37,2013-01-25 02:19:00,
2013-01-24 21:22:00,24.5,6.6,30.35,NE,55,9.0,9.0,46,0.00,,SCT,0.00,WeatherDisplay:10.37,2013-01-25 02:22:00,
2013-01-24 21:24:00,24.5,6.6,30.35,ENE,61,10.0,10.0,46,0.00,,SCT,0.00,WeatherDisplay:10.37,2013-01-25 02:24:00,
2013-01-24 21:25:00,24.5,6.6,30.35,ENE,63,10.4,10.4,46,0.00,,SCT,0.00,WeatherDisplay:10.37,2013-01-25 02:25:00,
2013-01-24 21:27:00,24.4,6.1,30.35,ENE,60,11.5,11.5,45,0.00,,SCT,0.00,WeatherDisplay:10.37,2013-01-25 02:27:00,
2013-01-24 21:30:00,24.4,6.6,30.35,ENE,61,10.4,10.4,46,0.00,,SCT,0.00,WeatherDisplay:10.37,2013-01-25 02:30:00,
2013-01-24 21:31:00,24.4,6.6,30.34,NE,50,10.4,10.4,46,0.00,,SCT,0.00,WeatherDisplay:10.37,2013-01-25 02:31:00,
2013-01-24 21:33:00,24.4,6.1,30.35,ENE,61,6.9,6.9,45,0.00,,SCT,0.00,WeatherDisplay:10.37,2013-01-25 02:33:00,
2013-01-24 21:36:00,24.2,6.4,30.34,ENE,61,11.5,11.5,46,0.00,,SCT,0.00,WeatherDisplay:10.37,2013-01-25 02:36:00,
2013-01-24 21:38:00,24.2,6.4,30.34,ENE,67,8.1,8.1,46,0.00,,SCT,0.00,WeatherDisplay:10.37,2013-01-25 02:38:00,
2013-01-24 21:41:00,24.2,6.4,30.34,ENE,67,11.5,11.5,46,0.00,,SCT,0.00,WeatherDisplay:10.37,2013-01-25 02:41:00,
2013-01-24 21:43:00,24.2,6.4,30.34,ENE,68,10.4,10.4,46,0.00,,SCT,0.00,WeatherDisplay:10.37,2013-01-25 02:43:00,
2013-01-24 21:46:00,24.1,6.3,30.35,NE,55,8.1,8.1,46,0.00,,SCT,0.00,WeatherDisplay:10.37,2013-01-25 02:46:00,
2013-01-24 21:48:00,24.1,6.3,30.35,ENE,63,10.4,10.4,46,0.00,,SCT,0.00,WeatherDisplay:10.37,2013-01-25 02:48:00,
2013-01-24 21:49:00,24.1,6.3,30.35,ENE,63,10.4,10.4,46,0.00,,SCT,0.00,WeatherDisplay:10.37,2013-01-25 02:49:00,
2013-01-24 21:51:00,24.1,6.3,30.35,ENE,63,10.4,10.4,46,0.00,,SCT,0.00,WeatherDisplay:10.37,2013-01-25 02:51:00,
2013-01-24 21:53:00,24.1,6.3,30.35,ENE,74,6.0,6.0,46,0.00,,SCT,0.00,WeatherDisplay:10.37,2013-01-25 02:53:00,
2013-01-24 21:54:00,24.1,6.3,30.35,ENE,74,5.8,5.8,46,0.00,,SCT,0.00,WeatherDisplay:10.37,2013-01-25 02:54:00,
2013-01-24 21:56:00,23.9,6.1,30.35,ENE,66,6.9,6.9,46,0.00,,SCT,0.00,WeatherDisplay:10.37,2013-01-25 02:56:00,
2013-01-24 21:57:00,23.9,6.1,30.35,ENE,66,6.0,6.0,46,0.00,,SCT,0.00,WeatherDisplay:10.37,2013-01-25 02:57:00,
2013-01-24 22:00:00,23.8,6.0,30.35,ENE,65,3.5,3.5,46,0.00,,SCT,0.00,WeatherDisplay:10.37,2013-01-25 03:00:00,
2013-01-24 22:01:00,23.8,6.0,30.35,ENE,65,5.0,5.0,46,0.00,,SCT,0.00,WeatherDisplay:10.37,2013-01-25 03:01:00,
2013-01-24 22:03:00,23.8,6.0,30.35,ENE,65,3.5,3.5,46,0.00,,SCT,0.00,WeatherDisplay:10.37,2013-01-25 03:03:00,
2013-01-24 22:05:00,23.6,5.8,30.35,ENE,67,4.0,4.0,46,0.00,,SCT,0.00,WeatherDisplay:10.37,2013-01-25 03:05:00,
2013-01-24 22:08:00,23.6,5.8,30.35,ENE,66,5.8,5.8,46,0.00,,SCT,0.00,WeatherDisplay:10.37,2013-01-25 03:08:00,
2013-01-24 22:12:00,23.5,5.7,30.35,ENE,65,6.9,6.9,46,0.00,,SCT,0.00,WeatherDisplay:10.37,2013-01-25 03:12:00,
2013-01-24 22:13:00,23.5,5.7,30.35,ENE,65,5.8,5.8,46,0.00,,SCT,0.00,WeatherDisplay:10.37,2013-01-25 03:13:00,
2013-01-24 22:14:00,23.3,5.5,30.35,ENE,64,5.8,5.8,46,0.00,,SCT,0.00,WeatherDisplay:10.37,2013-01-25 03:14:00,
2013-01-24 22:18:00,23.3,5.5,30.35,ENE,64,5.8,5.8,46,0.00,,SCT,0.00,WeatherDisplay:10.37,2013-01-25 03:18:00,
2013-01-24 22:19:00,23.3,5.5,30.35,ENE,62,5.8,5.8,46,0.00,,SCT,0.00,WeatherDisplay:10.37,2013-01-25 03:19:00,
2013-01-24 22:20:00,23.2,5.4,30.35,ENE,61,5.8,5.8,46,0.00,,SCT,0.00,WeatherDisplay:10.37,2013-01-25 03:20:00,
2013-01-24 22:24:00,23.2,5.9,30.35,ENE,61,5.8,5.8,47,0.00,,SCT,0.00,WeatherDisplay:10.37,2013-01-25 03:24:00,
2013-01-24 22:25:00,23.0,5.7,30.35,ENE,61,5.8,5.8,47,0.00,,SCT,0.00,WeatherDisplay:10.37,2013-01-25 03:25:00,
2013-01-24 22:30:00,22.9,5.6,30.35,ENE,62,6.9,6.9,47,0.00,,SCT,0.00,WeatherDisplay:10.37,2013-01-25 03:30:00,
2013-01-24 22:31:00,22.9,5.6,30.35,ENE,61,6.9,6.9,47,0.00,,SCT,0.00,WeatherDisplay:10.37,2013-01-25 03:31:00,
2013-01-24 22:36:00,22.7,5.5,30.34,ENE,60,5.8,5.8,47,0.00,,SCT,0.00,WeatherDisplay:10.37,2013-01-25 03:36:00,
2013-01-24 22:37:00,22.7,5.5,30.34,ENE,59,6.0,6.0,47,0.00,,SCT,0.00,WeatherDisplay:10.37,2013-01-25 03:37:00,
2013-01-24 22:41:00,22.7,5.5,30.34,NE,51,6.9,6.9,47,0.00,,SCT,0.00,WeatherDisplay:10.37,2013-01-25 03:41:00,
2013-01-24 22:42:00,22.7,5.9,30.34,NE,54,5.8,5.8,48,0.00,,SCT,0.00,WeatherDisplay:10.37,2013-01-25 03:42:00,
2013-01-24 22:46:00,22.7,5.9,30.34,NE,53,4.6,4.6,48,0.00,,SCT,0.00,WeatherDisplay:10.37,2013-01-25 03:46:00,
2013-01-24 22:47:00,22.7,5.9,30.34,NE,53,4.6,4.6,48,0.00,,SCT,0.00,WeatherDisplay:10.37,2013-01-25 03:47:00,
2013-01-24 22:51:00,22.7,5.9,30.34,NE,53,4.0,4.0,48,0.00,,SCT,0.00,WeatherDisplay:10.37,2013-01-25 03:51:00,
2013-01-24 22:52:00,22.7,5.9,30.35,NE,53,4.6,4.6,48,0.00,,SCT,0.00,WeatherDisplay:10.37,2013-01-25 03:52:00,
2013-01-24 22:54:00,22.7,5.9,30.34,NE,53,3.5,3.5,48,0.00,,SCT,0.00,WeatherDisplay:10.37,2013-01-25 03:54:00,
2013-01-24 22:55:00,22.5,5.7,30.35,NE,53,3.0,3.0,48,0.00,,SCT,0.00,WeatherDisplay:10.37,2013-01-25 03:55:00,
2013-01-24 22:57:00,22.5,5.7,30.34,NE,53,3.5,3.5,48,0.00,,SCT,0.00,WeatherDisplay:10.37,2013-01-25 03:57:00,
2013-01-24 23:00:00,22.5,5.7,30.34,NE,53,0.0,0.0,48,0.00,,SCT,0.00,WeatherDisplay:10.37,2013-01-25 04:00:00,
2013-01-24 23:02:00,22.4,5.6,30.34,NE,53,0.0,0.0,48,0.00,,SCT,0.00,WeatherDisplay:10.37,2013-01-25 04:02:00,
2013-01-24 23:05:00,22.4,6.1,30.34,NE,53,3.5,3.5,49,0.00,,SCT,0.00,WeatherDisplay:10.37,2013-01-25 04:05:00,
2013-01-24 23:07:00,22.2,5.9,30.34,NE,53,3.5,3.5,49,0.00,,SCT,0.00,WeatherDisplay:10.37,2013-01-25 04:07:00,
2013-01-24 23:10:00,22.1,5.8,30.34,NE,53,3.5,3.5,49,0.00,,SCT,0.00,WeatherDisplay:10.37,2013-01-25 04:10:00,
2013-01-24 23:14:00,21.9,5.6,30.33,NE,53,2.3,2.3,49,0.00,,SCT,0.00,WeatherDisplay:10.37,2013-01-25 04:14:00,
2013-01-24 23:15:00,21.8,6.0,30.33,NE,53,2.3,2.3,50,0.00,,SCT,0.00,WeatherDisplay:10.37,2013-01-25 04:15:00,
2013-01-24 23:16:00,21.8,6.0,30.33,NE,53,3.5,3.5,50,0.00,,SCT,0.00,WeatherDisplay:10.37,2013-01-25 04:16:00,
2013-01-24 23:21:00,21.3,5.5,30.33,NE,53,3.5,3.5,50,0.00,,SCT,0.00,WeatherDisplay:10.37,2013-01-25 04:21:00,
2013-01-24 23:22:00,21.3,5.5,30.33,NE,53,3.5,3.5,50,0.00,,SCT,0.00,WeatherDisplay:10.37,2013-01-25 04:22:00,
2013-01-24 23:27:00,20.8,5.1,30.34,NE,53,3.5,3.5,50,0.00,,SCT,0.00,WeatherDisplay:10.37,2013-01-25 04:27:00,
2013-01-24 23:30:00,20.6,4.9,30.33,NE,53,3.5,3.5,50,0.00,,SCT,0.00,WeatherDisplay:10.37,2013-01-25 04:30:00,
2013-01-24 23:32:00,20.6,5.3,30.33,NE,53,4.0,4.0,51,0.00,,SCT,0.00,WeatherDisplay:10.37,2013-01-25 04:32:00,
2013-01-24 23:34:00,20.6,5.3,30.33,NE,53,3.5,3.5,51,0.00,,SCT,0.00,WeatherDisplay:10.37,2013-01-25 04:34:00,
2013-01-24 23:35:00,20.6,5.3,30.33,NE,53,3.5,3.5,51,0.00,,SCT,0.00,WeatherDisplay:10.37,2013-01-25 04:35:00,
2013-01-24 23:39:00,20.6,5.7,30.33,NE,53,3.5,3.5,52,0.00,,SCT,0.00,WeatherDisplay:10.37,2013-01-25 04:39:00,
2013-01-24 23:41:00,20.8,5.9,30.32,NE,53,3.5,3.5,52,0.00,,SCT,0.00,WeatherDisplay:10.37,2013-01-25 04:41:00,
2013-01-24 23:45:00,20.8,5.9,30.33,NE,53,2.3,2.3,52,0.00,,SCT,0.00,WeatherDisplay:10.37,2013-01-25 04:45:00,
2013-01-24 23:46:00,20.8,5.9,30.33,NE,53,3.5,3.5,52,0.00,,SCT,0.00,WeatherDisplay:10.37,2013-01-25 04:46:00,
2013-01-24 23:47:00,20.8,5.9,30.33,NE,53,3.5,3.5,52,0.00,,SCT,0.00,WeatherDisplay:10.37,2013-01-25 04:47:00,
2013-01-24 23:51:00,21.0,6.1,30.33,NE,53,3.5,3.5,52,0.00,,SCT,0.00,WeatherDisplay:10.37,2013-01-25 04:51:00,
2013-01-24 23:55:00,21.1,6.2,30.32,NE,53,3.5,3.5,52,0.00,,SCT,0.00,WeatherDisplay:10.37,2013-01-25 04:55:00,
2013-01-24 23:56:00,21.1,6.2,30.32,NE,53,3.5,3.5,52,0.00,,SCT,0.00,WeatherDisplay:10.37,2013-01-25 04:56:00,
2013-01-24 23:58:00,21.3,6.8,30.32,NE,53,3.5,3.5,53,0.00,,SCT,0.00,WeatherDisplay:10.37,2013-01-25 04:58:00,